Observation data for Wall on 02/22/2019      Previous  Date  Next       Current Mesonet Observations  Soil Data  Daily Summary Page  Observations in Plain Language
KWA1 220600Z 09008KT 06/03 A2991 RMK A01 T00550029  RH  084%=      5-min Rain = 0
KWA1 220601Z 09008KT 05/03 A2991 RMK A01 T00540029  RH  084%=      5-min Rain = 0
KWA1 220602Z 09008KT 05/03 A2991 RMK A01 T00540029  RH  084%=      5-min Rain = 0
KWA1 220603Z 10008KT 06/03 A2991 RMK A01 T00550030  RH  084%=      5-min Rain = 0
KWA1 220604Z 10008KT 05/03 A2991 RMK A01 T00540029  RH  084%=      5-min Rain = 0
KWA1 220605Z 10008KT 05/03 A2991 RMK A01 T00540030  RH  084%=      5-min Rain = 0
KWA1 220606Z 10009KT 05/03 A2991 RMK A01 T00540030  RH  085%=      5-min Rain = 0
KWA1 220607Z 10009KT 06/03 A2991 RMK A01 T00550032  RH  085%=      5-min Rain = 0
KWA1 220608Z 10009KT 06/03 A2991 RMK A01 T00560034  RH  086%=      5-min Rain = 0
KWA1 220609Z 10008KT 06/04 A299 RMK A01 T00570035  RH  086%=      5-min Rain = 0
KWA1 220610Z 10009KT 06/04 A299 RMK A01 T00580037  RH  086%=      5-min Rain = 0
KWA1 220611Z 10008KT 06/04 A299 RMK A01 T00600038  RH  086%=      5-min Rain = 0
KWA1 220612Z 10008KT 06/04 A299 RMK A01 T00600038  RH  086%=      5-min Rain = 0
KWA1 220613Z 10008KT 06/04 A299 RMK A01 T00600038  RH  086%=      5-min Rain = 0
KWA1 220614Z 10008KT 06/04 A299 RMK A01 T00610039  RH  086%=      5-min Rain = 0
KWA1 220615Z 10008KT 06/04 A299 RMK A01 T00610038  RH  085%=      5-min Rain = 0
KWA1 220616Z 10008KT 06/04 A299 RMK A01 T00610038  RH  085%=      5-min Rain = 0
KWA1 220617Z 10008KT 06/04 A299 RMK A01 T00610038  RH  086%=      5-min Rain = 0
KWA1 220618Z 09008KT 06/04 A299 RMK A01 T00610038  RH  085%=      5-min Rain = 0
KWA1 220619Z 10008KT 06/04 A299 RMK A01 T00610038  RH  085%=      5-min Rain = 0
KWA1 220620Z 10007KT 06/04 A299 RMK A01 T00610038  RH  086%=      5-min Rain = 0
KWA1 220621Z 09008KT 06/04 A299 RMK A01 T00600038  RH  086%=      5-min Rain = 0
KWA1 220622Z 09008KT 06/04 A299 RMK A01 T00610039  RH  086%=      5-min Rain = 0
KWA1 220623Z 09009KT 06/04 A299 RMK A01 T00610040  RH  086%=      5-min Rain = 0
KWA1 220624Z 09008KT 06/04 A2991 RMK A01 T00620040  RH  086%=      5-min Rain = 0
KWA1 220625Z 09008KT 06/04 A2991 RMK A01 T00620039  RH  085%=      5-min Rain = 0
KWA1 220626Z 09009KT 06/04 A2991 RMK A01 T00610038  RH  085%=      5-min Rain = 0
KWA1 220627Z 10009KT 06/04 A2991 RMK A01 T00610038  RH  085%=      5-min Rain = 0
KWA1 220628Z 09009KT 06/04 A2991 RMK A01 T00600037  RH  085%=      5-min Rain = 0
KWA1 220629Z 09009KT 06/04 A2991 RMK A01 T00590036  RH  085%=      5-min Rain = 0
KWA1 220630Z 09008KT 06/04 A2991 RMK A01 T00590036  RH  085%=      5-min Rain = 0
KWA1 220631Z 09008KT 06/04 A2991 RMK A01 T00590036  RH  085%=      5-min Rain = 0
KWA1 220632Z 09008KT 06/04 A2991 RMK A01 T00580036  RH  085%=      5-min Rain = 0
KWA1 220633Z 09008KT 06/04 A299 RMK A01 T00580036  RH  086%=      5-min Rain = 0
KWA1 220634Z 09007KT 06/04 A299 RMK A01 T00570035  RH  086%=      5-min Rain = 0
KWA1 220635Z 08007KT 06/03 A299 RMK A01 T00570034  RH  085%=      5-min Rain = 0
KWA1 220636Z 08007KT 06/03 A2989 RMK A01 T00550033  RH  085%=      5-min Rain = 0
KWA1 220637Z 08007KT 05/03 A2989 RMK A01 T00540032  RH  086%=      5-min Rain = 0
KWA1 220638Z 08007KT 05/03 A2989 RMK A01 T00540032  RH  086%=      5-min Rain = 0
KWA1 220639Z 08007KT 05/03 A2989 RMK A01 T00530031  RH  086%=      5-min Rain = 0
KWA1 220640Z 08006KT 05/03 A2989 RMK A01 T00520031  RH  086%=      5-min Rain = 0
KWA1 220641Z 09006KT 05/03 A2989 RMK A01 T00510030  RH  086%=      5-min Rain = 0
KWA1 220642Z 09006KT 05/03 A2989 RMK A01 T00510031  RH  087%=      5-min Rain = 0
KWA1 220643Z 10007KT 05/03 A2989 RMK A01 T00510031  RH  087%=      5-min Rain = 0
KWA1 220644Z 10008KT 05/04 A2989 RMK A01 T00520035  RH  089%=      5-min Rain = 0
KWA1 220645Z 10009KT 06/04 A2989 RMK A01 T00570043  RH  091%=      5-min Rain = 0
KWA1 220646Z 10008KT 06/05 A2989 RMK A01 T00610048  RH  091%=      5-min Rain = 0
KWA1 220647Z 10009KT 06/05 A2989 RMK A01 T00640049  RH  090%=      5-min Rain = 0
KWA1 220648Z 10008KT 07/05 A2989 RMK A01 T00650048  RH  089%=      5-min Rain = 0
KWA1 220649Z 10008KT 07/05 A2988 RMK A01 T00660046  RH  087%=      5-min Rain = 0
KWA1 220650Z 10008KT 07/05 A2988 RMK A01 T00660046  RH  087%=      5-min Rain = 0
KWA1 220651Z 09008KT 07/05 A2988 RMK A01 T00660046  RH  087%=      5-min Rain = 0
KWA1 220652Z 09008KT 07/05 A2988 RMK A01 T00660046  RH  087%=      5-min Rain = 0
KWA1 220653Z 09008KT 07/05 A2988 RMK A01 T00660046  RH  087%=      5-min Rain = 0
KWA1 220654Z 10007KT 07/05 A2988 RMK A01 T00660046  RH  087%=      5-min Rain = 0
KWA1 220655Z 10008KT 07/05 A2989 RMK A01 T00660045  RH  086%=      5-min Rain = 0
KWA1 220656Z 10007KT 07/05 A2989 RMK A01 T00660046  RH  087%=      5-min Rain = 0
KWA1 220657Z 10008KT 07/05 A2989 RMK A01 T00660047  RH  088%=      5-min Rain = 0
KWA1 220658Z 10009KT 07/05 A2989 RMK A01 T00660048  RH  088%=      5-min Rain = 0
KWA1 220659Z 10009KT 07/05 A2989 RMK A01 T00680049  RH  088%=      5-min Rain = 0
KWA1 220700Z 10009KT 07/05 A2989 RMK A01 T00690050  RH  088%=      5-min Rain = 0
KWA1 220701Z 10009KT 07/05 A2989 RMK A01 T00690050  RH  087%=      5-min Rain = 0
KWA1 220702Z 10009KT 07/05 A2989 RMK A01 T00690049  RH  087%=      5-min Rain = 0
KWA1 220703Z 10009KT 07/05 A2989 RMK A01 T00690049  RH  087%=      5-min Rain = 0
KWA1 220704Z 10010KT 07/05 A2989 RMK A01 T00690049  RH  087%=      5-min Rain = 0
KWA1 220705Z 10009KT 07/05 A2989 RMK A01 T00690048  RH  087%=      5-min Rain = 0
KWA1 220706Z 10009KT 07/05 A2989 RMK A01 T00680048  RH  087%=      5-min Rain = 0
KWA1 220707Z 10008KT 07/05 A2989 RMK A01 T00680047  RH  087%=      5-min Rain = 0
KWA1 220708Z 09008KT 07/05 A2988 RMK A01 T00670046  RH  087%=      5-min Rain = 0
KWA1 220709Z 09007KT 07/05 A2988 RMK A01 T00660045  RH  087%=      5-min Rain = 0
KWA1 220710Z 09008KT 07/05 A2988 RMK A01 T00650045  RH  087%=      5-min Rain = 0
KWA1 220711Z 09008KT 07/04 A2988 RMK A01 T00650044  RH  087%=      5-min Rain = 0
KWA1 220712Z 09008KT 06/04 A2988 RMK A01 T00640043  RH  086%=      5-min Rain = 0
KWA1 220713Z 09008KT 06/04 A2988 RMK A01 T00620041  RH  086%=      5-min Rain = 0
KWA1 220714Z 08008KT 06/04 A2988 RMK A01 T00620041  RH  087%=      5-min Rain = 0
KWA1 220715Z 08007KT 06/04 A2988 RMK A01 T00610041  RH  087%=      5-min Rain = 0
KWA1 220716Z 08008KT 06/04 A2988 RMK A01 T00610041  RH  087%=      5-min Rain = 0
KWA1 220717Z 08007KT 06/04 A2988 RMK A01 T00610040  RH  087%=      5-min Rain = 0
KWA1 220718Z 08007KT 06/04 A2988 RMK A01 T00600039  RH  086%=      5-min Rain = 0
KWA1 220719Z 08007KT 06/04 A2989 RMK A01 T00590038  RH  086%=      5-min Rain = 0
KWA1 220720Z 08008KT 06/04 A2989 RMK A01 T00590037  RH  086%=      5-min Rain = 0
KWA1 220721Z 09007KT 06/04 A2989 RMK A01 T00580037  RH  086%=      5-min Rain = 0
KWA1 220722Z 09008KT 06/04 A2989 RMK A01 T00580036  RH  086%=      5-min Rain = 0
KWA1 220723Z 09007KT 06/04 A2989 RMK A01 T00580036  RH  086%=      5-min Rain = 0
KWA1 220724Z 09007KT 06/04 A2989 RMK A01 T00570035  RH  086%=      5-min Rain = 0
KWA1 220725Z 09007KT 06/04 A2989 RMK A01 T00570035  RH  086%=      5-min Rain = 0
KWA1 220726Z 09007KT 06/04 A2989 RMK A01 T00560035  RH  086%=      5-min Rain = 0
KWA1 220727Z 10008KT 06/03 A2989 RMK A01 T00560034  RH  086%=      5-min Rain = 0
KWA1 220728Z 10008KT 06/03 A2989 RMK A01 T00550034  RH  087%=      5-min Rain = 0
KWA1 220729Z 10007KT 06/04 A2989 RMK A01 T00550035  RH  087%=      5-min Rain = 0
KWA1 220730Z 10008KT 06/04 A2989 RMK A01 T00550036  RH  088%=      5-min Rain = 0
KWA1 220731Z 10007KT 06/04 A2989 RMK A01 T00550036  RH  088%=      5-min Rain = 0
KWA1 220732Z 10007KT 06/04 A2989 RMK A01 T00550037  RH  088%=      5-min Rain = 0
KWA1 220733Z 10007KT 06/04 A2989 RMK A01 T00560039  RH  089%=      5-min Rain = 0
KWA1 220734Z 10007KT 06/04 A2989 RMK A01 T00570041  RH  089%=      5-min Rain = 0
KWA1 220735Z 10007KT 06/04 A2989 RMK A01 T00580041  RH  089%=      5-min Rain = 0
KWA1 220736Z 10007KT 06/04 A2989 RMK A01 T00580041  RH  089%=      5-min Rain = 0
KWA1 220737Z 10007KT 06/04 A2989 RMK A01 T00580040  RH  088%=      5-min Rain = 0
KWA1 220738Z 10007KT 06/04 A2989 RMK A01 T00590042  RH  089%=      5-min Rain = 0
KWA1 220739Z 10007KT 06/04 A2989 RMK A01 T00590042  RH  089%=      5-min Rain = 0
KWA1 220740Z 10006KT 06/04 A2989 RMK A01 T00600042  RH  089%=      5-min Rain = 0
KWA1 220741Z 09006KT 06/04 A2988 RMK A01 T00590041  RH  088%=      5-min Rain = 0
KWA1 220742Z 09006KT 06/04 A2988 RMK A01 T00600041  RH  088%=      5-min Rain = 0
KWA1 220743Z 09006KT 06/04 A2988 RMK A01 T00590041  RH  088%=      5-min Rain = 0
KWA1 220744Z 09007KT 06/04 A2988 RMK A01 T00600041  RH  088%=      5-min Rain = 0
KWA1 220745Z 08006KT 06/04 A2988 RMK A01 T00590040  RH  088%=      5-min Rain = 0
KWA1 220746Z 08006KT 06/04 A2988 RMK A01 T00580039  RH  088%=      5-min Rain = 0
KWA1 220747Z 08006KT 06/04 A2988 RMK A01 T00580039  RH  088%=      5-min Rain = 0
KWA1 220748Z 08006KT 06/04 A2988 RMK A01 T00570039  RH  088%=      5-min Rain = 0
KWA1 220749Z 07006KT 06/04 A2988 RMK A01 T00570039  RH  088%=      5-min Rain = 0
KWA1 220750Z 07005KT 06/04 A2988 RMK A01 T00570038  RH  088%=      5-min Rain = 0
KWA1 220751Z 06006KT 06/04 A2988 RMK A01 T00570038  RH  088%=      5-min Rain = 0
KWA1 220752Z 07005KT 06/04 A2988 RMK A01 T00570037  RH  088%=      5-min Rain = 0
KWA1 220753Z 07005KT 06/04 A2988 RMK A01 T00560037  RH  087%=      5-min Rain = 0
KWA1 220754Z 07005KT 06/04 A2988 RMK A01 T00560036  RH  087%=      5-min Rain = 0
KWA1 220755Z 07005KT 06/04 A2988 RMK A01 T00550036  RH  087%=      5-min Rain = 0
KWA1 220756Z 07005KT 06/04 A2988 RMK A01 T00550035  RH  087%=      5-min Rain = 0
KWA1 220757Z 06005KT 06/04 A2988 RMK A01 T00550035  RH  087%=      5-min Rain = 0
KWA1 220758Z 06005KT 05/04 A2988 RMK A01 T00540035  RH  087%=      5-min Rain = 0
KWA1 220759Z 07005KT 05/04 A2988 RMK A01 T00540035  RH  087%=      5-min Rain = 0
KWA1 220800Z 07005KT 05/03 A2989 RMK A01 T00540034  RH  087%=      5-min Rain = 0
KWA1 220801Z 07005KT 05/03 A2989 RMK A01 T00530034  RH  087%=      5-min Rain = 0
KWA1 220802Z 07004KT 05/03 A2989 RMK A01 T00530033  RH  087%=      5-min Rain = 0
KWA1 220803Z 08004KT 05/03 A2989 RMK A01 T00530033  RH  087%=      5-min Rain = 0
KWA1 220804Z 07003KT 05/03 A2989 RMK A01 T00520033  RH  087%=      5-min Rain = 0
KWA1 220805Z 07003KT 05/03 A2989 RMK A01 T00520033  RH  088%=      5-min Rain = 0
KWA1 220806Z 06003KT 05/03 A2988 RMK A01 T00520033  RH  088%=      5-min Rain = 0
KWA1 220807Z 06003KT 05/03 A2988 RMK A01 T00510033  RH  088%=      5-min Rain = 0
KWA1 220808Z 05003KT 05/03 A2988 RMK A01 T00510032  RH  088%=      5-min Rain = 0
KWA1 220809Z 04003KT 05/03 A2988 RMK A01 T00500032  RH  088%=      5-min Rain = 0
KWA1 220810Z 03003KT 05/03 A2988 RMK A01 T00500031  RH  088%=      5-min Rain = 0
KWA1 220811Z 01004KT 05/03 A2988 RMK A01 T00480029  RH  087%=      5-min Rain = 0
KWA1 220812Z 02004KT 05/03 A2988 RMK A01 T00460026  RH  087%=      5-min Rain = 0
KWA1 220813Z 01004KT 04/02 A2988 RMK A01 T00440024  RH  087%=      5-min Rain = 0
KWA1 220814Z 01004KT 04/03 A2988 RMK A01 T00440026  RH  088%=      5-min Rain = 0
KWA1 220815Z 02004KT 04/03 A2988 RMK A01 T00440027  RH  089%=      5-min Rain = 0
KWA1 220816Z 02004KT 04/03 A2988 RMK A01 T00440028  RH  089%=      5-min Rain = 0
KWA1 220817Z 03003KT 04/03 A2989 RMK A01 T00440029  RH  090%=      5-min Rain = 0
KWA1 220818Z 04003KT 05/03 A2989 RMK A01 T00450030  RH  090%=      5-min Rain = 0
KWA1 220819Z 05003KT 05/03 A2989 RMK A01 T00450032  RH  091%=      5-min Rain = 0
KWA1 220820Z 05003KT 05/03 A2989 RMK A01 T00460034  RH  092%=      5-min Rain = 0
KWA1 220821Z 06003KT 05/04 A2989 RMK A01 T00480036  RH  092%=      5-min Rain = 0
KWA1 220822Z 07002KT 05/04 A2989 RMK A01 T00490037  RH  092%=      5-min Rain = 0
KWA1 220823Z 07002KT 05/04 A299 RMK A01 T00500038  RH  092%=      5-min Rain = 0
KWA1 220824Z 07003KT 05/04 A2989 RMK A01 T00500038  RH  092%=      5-min Rain = 0
KWA1 220825Z 07003KT 05/04 A2989 RMK A01 T00510038  RH  092%=      5-min Rain = 0
KWA1 220826Z 08002KT 05/04 A299 RMK A01 T00510038  RH  091%=      5-min Rain = 0
KWA1 220827Z 09003KT 05/04 A299 RMK A01 T00510038  RH  091%=      5-min Rain = 0
KWA1 220828Z 09002KT 05/04 A299 RMK A01 T00520039  RH  091%=      5-min Rain = 0
KWA1 220829Z 09002KT 05/04 A299 RMK A01 T00520039  RH  091%=      5-min Rain = 0
KWA1 220830Z 07003KT 05/04 A299 RMK A01 T00530040  RH  091%=      5-min Rain = 0
KWA1 220831Z 06003KT 05/04 A299 RMK A01 T00530039  RH  091%=      5-min Rain = 0
KWA1 220832Z 05003KT 05/04 A299 RMK A01 T00530039  RH  091%=      5-min Rain = 0
KWA1 220833Z 05002KT 05/04 A299 RMK A01 T00540040  RH  090%=      5-min Rain = 0
KWA1 220834Z 05002KT 05/04 A299 RMK A01 T00540039  RH  090%=      5-min Rain = 0
KWA1 220835Z 06001KT 05/04 A299 RMK A01 T00540038  RH  090%=      5-min Rain = 0
KWA1 220836Z 06001KT 05/04 A299 RMK A01 T00540037  RH  089%=      5-min Rain = 0
KWA1 220837Z 07002KT 05/04 A299 RMK A01 T00530037  RH  089%=      5-min Rain = 0
KWA1 220838Z 07002KT 05/04 A299 RMK A01 T00540039  RH  090%=      5-min Rain = 0
KWA1 220839Z 09002KT 06/04 A299 RMK A01 T00550040  RH  090%=      5-min Rain = 0
KWA1 220840Z 10002KT 06/04 A299 RMK A01 T00560042  RH  091%=      5-min Rain = 0
KWA1 220841Z 08002KT 06/04 A299 RMK A01 T00560042  RH  090%=      5-min Rain = 0
KWA1 220842Z 07002KT 06/04 A299 RMK A01 T00560041  RH  090%=      5-min Rain = 0
KWA1 220843Z 07002KT 06/04 A299 RMK A01 T00550038  RH  088%=      5-min Rain = 0
KWA1 220844Z 09001KT 05/04 A299 RMK A01 T00540035  RH  088%=      5-min Rain = 0
KWA1 220845Z 09001KT 05/04 A2991 RMK A01 T00540036  RH  088%=      5-min Rain = 0
KWA1 220846Z 10001KT 06/04 A2991 RMK A01 T00550039  RH  089%=      5-min Rain = 0
KWA1 220847Z 11001KT 06/04 A2991 RMK A01 T00550039  RH  089%=      5-min Rain = 0
KWA1 220848Z 13001KT 06/04 A2991 RMK A01 T00550039  RH  089%=      5-min Rain = 0
KWA1 220849Z 12001KT 06/04 A2991 RMK A01 T00550038  RH  089%=      5-min Rain = 0
KWA1 220850Z 12001KT 06/04 A2991 RMK A01 T00550038  RH  089%=      5-min Rain = 0
KWA1 220851Z 14001KT 06/04 A2991 RMK A01 T00550039  RH  089%=      5-min Rain = 0
KWA1 220852Z 12001KT 06/04 A2991 RMK A01 T00550038  RH  089%=      5-min Rain = 0
KWA1 220853Z 12001KT 06/04 A2991 RMK A01 T00550038  RH  089%=      5-min Rain = 0
KWA1 220854Z 13001KT 06/04 A2991 RMK A01 T00550038  RH  089%=      5-min Rain = 0
KWA1 220855Z 13001KT 06/04 A2991 RMK A01 T00550037  RH  088%=      5-min Rain = 0
KWA1 220856Z 12001KT 05/03 A2991 RMK A01 T00540033  RH  087%=      5-min Rain = 0
KWA1 220857Z 11001KT 05/03 A299 RMK A01 T00530032  RH  086%=      5-min Rain = 0
KWA1 220858Z 11001KT 05/03 A299 RMK A01 T00530032  RH  086%=      5-min Rain = 0
KWA1 220859Z 10002KT 05/03 A299 RMK A01 T00540034  RH  087%=      5-min Rain = 0
KWA1 220900Z 08002KT 05/04 A299 RMK A01 T00540036  RH  088%=      5-min Rain = 0
KWA1 220901Z 08001KT 06/04 A299 RMK A01 T00550035  RH  087%=      5-min Rain = 0
KWA1 220902Z 07002KT 05/04 A299 RMK A01 T00540035  RH  087%=      5-min Rain = 0
KWA1 220903Z 07002KT 06/04 A299 RMK A01 T00550036  RH  088%=      5-min Rain = 0
KWA1 220904Z 06001KT 05/04 A299 RMK A01 T00540036  RH  088%=      5-min Rain = 0
KWA1 220905Z 06001KT 05/04 A299 RMK A01 T00540035  RH  087%=      5-min Rain = 0
KWA1 220906Z 05002KT 05/03 A299 RMK A01 T00540034  RH  087%=      5-min Rain = 0
KWA1 220907Z 05002KT 05/03 A2989 RMK A01 T00540034  RH  087%=      5-min Rain = 0
KWA1 220908Z 05002KT 05/04 A2989 RMK A01 T00540035  RH  087%=      5-min Rain = 0
KWA1 220909Z 04002KT 05/04 A2989 RMK A01 T00540036  RH  088%=      5-min Rain = 0
KWA1 220910Z 04003KT 05/04 A2989 RMK A01 T00540037  RH  088%=      5-min Rain = 0
KWA1 220911Z 04002KT 06/04 A2989 RMK A01 T00550037  RH  088%=      5-min Rain = 0
KWA1 220912Z 04003KT 06/04 A299 RMK A01 T00550037  RH  088%=      5-min Rain = 0
KWA1 220913Z 05003KT 06/04 A299 RMK A01 T00560036  RH  088%=      5-min Rain = 0
KWA1 220914Z 05003KT 06/04 A2989 RMK A01 T00560036  RH  087%=      5-min Rain = 0
KWA1 220915Z 05003KT 06/04 A2989 RMK A01 T00560036  RH  087%=      5-min Rain = 0
KWA1 220916Z 05003KT 06/04 A2989 RMK A01 T00570037  RH  087%=      5-min Rain = 0
KWA1 220917Z 05003KT 06/04 A2989 RMK A01 T00570038  RH  087%=      5-min Rain = 0
KWA1 220918Z 05003KT 06/04 A299 RMK A01 T00580038  RH  087%=      5-min Rain = 0
KWA1 220919Z 05003KT 06/04 A299 RMK A01 T00590040  RH  087%=      5-min Rain = 0
KWA1 220920Z 04003KT 06/04 A2989 RMK A01 T00590039  RH  087%=      5-min Rain = 0
KWA1 220921Z 04003KT 06/04 A2989 RMK A01 T00590039  RH  087%=      5-min Rain = 0
KWA1 220922Z 04003KT 06/04 A2989 RMK A01 T00600039  RH  087%=      5-min Rain = 0
KWA1 220923Z 05003KT 06/04 A2989 RMK A01 T00600039  RH  087%=      5-min Rain = 0
KWA1 220924Z 06003KT 06/04 A2989 RMK A01 T00600039  RH  087%=      5-min Rain = 0
KWA1 220925Z 05003KT 06/04 A2989 RMK A01 T00600040  RH  087%=      5-min Rain = 0
KWA1 220926Z 04002KT 06/04 A2989 RMK A01 T00610041  RH  087%=      5-min Rain = 0
KWA1 220927Z 04002KT 06/04 A299 RMK A01 T00620042  RH  087%=      5-min Rain = 0
KWA1 220928Z 05003KT 06/04 A2989 RMK A01 T00620043  RH  087%=      5-min Rain = 0
KWA1 220929Z 05003KT 06/04 A2989 RMK A01 T00630044  RH  088%=      5-min Rain = 0
KWA1 220930Z 05003KT 06/04 A2989 RMK A01 T00630044  RH  087%=      5-min Rain = 0
KWA1 220931Z 06003KT 06/04 A299 RMK A01 T00630043  RH  087%=      5-min Rain = 0
KWA1 220932Z 07003KT 06/05 A2989 RMK A01 T00640045  RH  088%=      5-min Rain = 0
KWA1 220933Z 07004KT 07/05 A2989 RMK A01 T00650047  RH  088%=      5-min Rain = 0
KWA1 220934Z 07006KT 07/05 A2989 RMK A01 T00670047  RH  088%=      5-min Rain = 0
KWA1 220935Z 08005KT 07/05 A299 RMK A01 T00670048  RH  087%=      5-min Rain = 0
KWA1 220936Z 08006KT 07/05 A299 RMK A01 T00680048  RH  087%=      5-min Rain = 0
KWA1 220937Z 08006KT 07/05 A2989 RMK A01 T00690048  RH  087%=      5-min Rain = 0
KWA1 220938Z 08006KT 07/05 A2989 RMK A01 T00690048  RH  087%=      5-min Rain = 0
KWA1 220939Z 08006KT 07/05 A2989 RMK A01 T00700048  RH  086%=      5-min Rain = 0
KWA1 220940Z 08006KT 07/05 A2989 RMK A01 T00690048  RH  086%=      5-min Rain = 0
KWA1 220941Z 08006KT 07/05 A2989 RMK A01 T00700048  RH  086%=      5-min Rain = 0
KWA1 220942Z 08007KT 07/05 A2989 RMK A01 T00700048  RH  086%=      5-min Rain = 0
KWA1 220943Z 08007KT 07/05 A2989 RMK A01 T00700048  RH  086%=      5-min Rain = 0
KWA1 220944Z 08006KT 07/05 A2989 RMK A01 T00700048  RH  086%=      5-min Rain = 0
KWA1 220945Z 08007KT 07/05 A2989 RMK A01 T00700047  RH  085%=      5-min Rain = 0
KWA1 220946Z 08007KT 07/05 A2989 RMK A01 T00700047  RH  085%=      5-min Rain = 0
KWA1 220947Z 08007KT 07/05 A2989 RMK A01 T00700048  RH  086%=      5-min Rain = 0
KWA1 220948Z 08007KT 07/05 A2989 RMK A01 T00700047  RH  085%=      5-min Rain = 0
KWA1 220949Z 08007KT 07/05 A2989 RMK A01 T00700047  RH  085%=      5-min Rain = 0
KWA1 220950Z 08007KT 07/05 A299 RMK A01 T00700047  RH  085%=      5-min Rain = 0
KWA1 220951Z 08007KT 07/05 A299 RMK A01 T00690046  RH  085%=      5-min Rain = 0
KWA1 220952Z 08006KT 07/05 A299 RMK A01 T00700047  RH  085%=      5-min Rain = 0
KWA1 220953Z 09006KT 07/05 A299 RMK A01 T00700046  RH  085%=      5-min Rain = 0
KWA1 220954Z 09007KT 07/05 A299 RMK A01 T00700046  RH  085%=      5-min Rain = 0
KWA1 220955Z 09007KT 07/05 A299 RMK A01 T00700046  RH  085%=      5-min Rain = 0
KWA1 220956Z 09007KT 07/05 A299 RMK A01 T00700046  RH  085%=      5-min Rain = 0
KWA1 220957Z 09006KT 07/05 A299 RMK A01 T00700046  RH  085%=      5-min Rain = 0
KWA1 220958Z 09006KT 07/05 A299 RMK A01 T00690045  RH  085%=      5-min Rain = 0
KWA1 220959Z 09006KT 07/05 A299 RMK A01 T00690045  RH  085%=      5-min Rain = 0
KWA1 221000Z 09006KT 07/05 A299 RMK A01 T00690046  RH  085%=      5-min Rain = 0
KWA1 221001Z 08006KT 07/05 A299 RMK A01 T00680045  RH  085%=      5-min Rain = 0
KWA1 221002Z 08006KT 07/05 A299 RMK A01 T00680045  RH  085%=      5-min Rain = 0
KWA1 221003Z 08006KT 07/04 A299 RMK A01 T00680044  RH  085%=      5-min Rain = 0
KWA1 221004Z 08006KT 07/04 A299 RMK A01 T00670044  RH  085%=      5-min Rain = 0
KWA1 221005Z 08007KT 07/04 A299 RMK A01 T00670044  RH  085%=      5-min Rain = 0
KWA1 221006Z 08007KT 07/04 A299 RMK A01 T00660043  RH  085%=      5-min Rain = 0
KWA1 221007Z 08007KT 07/04 A299 RMK A01 T00660044  RH  086%=      5-min Rain = 0
KWA1 221008Z 08008KT 07/04 A299 RMK A01 T00660044  RH  086%=      5-min Rain = 0
KWA1 221009Z 08008KT 07/04 A2989 RMK A01 T00650044  RH  086%=      5-min Rain = 0
KWA1 221010Z 08008KT 07/05 A2989 RMK A01 T00660045  RH  087%=      5-min Rain = 0
KWA1 221011Z 09008KT 07/05 A299 RMK A01 T00660045  RH  087%=      5-min Rain = 0
KWA1 221012Z 09008KT 07/05 A299 RMK A01 T00660045  RH  087%=      5-min Rain = 0
KWA1 221013Z 09008KT 07/05 A299 RMK A01 T00660045  RH  086%=      5-min Rain = 0
KWA1 221014Z 09008KT 07/05 A299 RMK A01 T00670046  RH  087%=      5-min Rain = 0
KWA1 221015Z 09008KT 07/05 A299 RMK A01 T00680047  RH  087%=      5-min Rain = 0
KWA1 221016Z 09008KT 07/05 A299 RMK A01 T00690048  RH  086%=      5-min Rain = 0
KWA1 221017Z 09007KT 07/05 A299 RMK A01 T00690048  RH  086%=      5-min Rain = 0
KWA1 221018Z 09008KT 07/05 A299 RMK A01 T00700048  RH  086%=      5-min Rain = 0
KWA1 221019Z 09008KT 07/05 A299 RMK A01 T00700048  RH  086%=      5-min Rain = 0
KWA1 221020Z 09007KT 07/05 A299 RMK A01 T00700049  RH  086%=      5-min Rain = 0
KWA1 221021Z 09007KT 07/05 A299 RMK A01 T00710049  RH  086%=      5-min Rain = 0
KWA1 221022Z 08008KT 07/05 A2989 RMK A01 T00710049  RH  086%=      5-min Rain = 0
KWA1 221023Z 08008KT 07/05 A2989 RMK A01 T00710049  RH  086%=      5-min Rain = 0
KWA1 221024Z 09008KT 07/05 A2989 RMK A01 T00710049  RH  086%=      5-min Rain = 0
KWA1 221025Z 08008KT 07/05 A2989 RMK A01 T00710049  RH  086%=      5-min Rain = 0
KWA1 221026Z 08008KT 07/05 A2989 RMK A01 T00710049  RH  086%=      5-min Rain = 0
KWA1 221027Z 08008KT 07/05 A2989 RMK A01 T00710049  RH  086%=      5-min Rain = 0
KWA1 221028Z 08007KT 07/05 A2989 RMK A01 T00710048  RH  085%=      5-min Rain = 0
KWA1 221029Z 08008KT 07/05 A2989 RMK A01 T00700048  RH  086%=      5-min Rain = 0
KWA1 221030Z 08008KT 07/05 A2989 RMK A01 T00700048  RH  086%=      5-min Rain = 0
KWA1 221031Z 08007KT 07/05 A2989 RMK A01 T00700049  RH  086%=      5-min Rain = 0
KWA1 221032Z 08007KT 07/05 A2989 RMK A01 T00710049  RH  086%=      5-min Rain = 0
KWA1 221033Z 08007KT 07/05 A2989 RMK A01 T00710049  RH  086%=      5-min Rain = 0
KWA1 221034Z 08007KT 07/05 A2989 RMK A01 T00710050  RH  086%=      5-min Rain = 0
KWA1 221035Z 08007KT 07/05 A2989 RMK A01 T00710049  RH  086%=      5-min Rain = 0
KWA1 221036Z 08008KT 07/05 A2989 RMK A01 T00710050  RH  086%=      5-min Rain = 0
KWA1 221037Z 07007KT 07/05 A2989 RMK A01 T00720050  RH  086%=      5-min Rain = 0
KWA1 221038Z 08007KT 07/05 A2989 RMK A01 T00720050  RH  086%=      5-min Rain = 0
KWA1 221039Z 08006KT 07/05 A2989 RMK A01 T00720051  RH  086%=      5-min Rain = 0
KWA1 221040Z 08005KT 07/05 A2989 RMK A01 T00720051  RH  086%=      5-min Rain = 0
KWA1 221041Z 08006KT 07/05 A2989 RMK A01 T00730051  RH  086%=      5-min Rain = 0
KWA1 221042Z 08005KT 07/05 A2989 RMK A01 T00730051  RH  086%=      5-min Rain = 0
KWA1 221043Z 09006KT 07/05 A2989 RMK A01 T00740052  RH  086%=      5-min Rain = 0
KWA1 221044Z 09006KT 07/05 A2989 RMK A01 T00740051  RH  086%=      5-min Rain = 0
KWA1 221045Z 09006KT 07/05 A2989 RMK A01 T00740052  RH  086%=      5-min Rain = 0
KWA1 221046Z 09005KT 08/05 A299 RMK A01 T00750052  RH  086%=      5-min Rain = 0
KWA1 221047Z 10007KT 08/05 A299 RMK A01 T00750053  RH  086%=      5-min Rain = 0
KWA1 221048Z 09006KT 08/05 A299 RMK A01 T00750053  RH  086%=      5-min Rain = 0
KWA1 221049Z 09007KT 08/05 A299 RMK A01 T00760053  RH  086%=      5-min Rain = 0
KWA1 221050Z 09008KT 08/05 A299 RMK A01 T00760053  RH  085%=      5-min Rain = 0
KWA1 221051Z 09009KT 08/05 A299 RMK A01 T00760053  RH  085%=      5-min Rain = 0
KWA1 221052Z 09009KT 08/05 A299 RMK A01 T00760053  RH  085%=      5-min Rain = 0
KWA1 221053Z 09009KT 08/05 A299 RMK A01 T00760053  RH  085%=      5-min Rain = 0
KWA1 221054Z 09009KT 08/05 A299 RMK A01 T00760053  RH  085%=      5-min Rain = 0
KWA1 221055Z 09009KT 08/05 A299 RMK A01 T00760053  RH  085%=      5-min Rain = 0
KWA1 221056Z 09009KT 08/05 A299 RMK A01 T00770053  RH  085%=      5-min Rain = 0
KWA1 221057Z 09009KT 08/05 A299 RMK A01 T00770053  RH  085%=      5-min Rain = 0
KWA1 221058Z 09009KT 08/05 A2991 RMK A01 T00770053  RH  085%=      5-min Rain = 0
KWA1 221059Z 09008KT 08/05 A2991 RMK A01 T00770053  RH  085%=      5-min Rain = 0
KWA1 221100Z 09008KT 08/05 A2991 RMK A01 T00770053  RH  085%=      5-min Rain = 0
KWA1 221101Z 08007KT 08/05 A2991 RMK A01 T00770053  RH  085%=      5-min Rain = 0
KWA1 221102Z 08006KT 08/05 A2991 RMK A01 T00770054  RH  085%=      5-min Rain = 0
KWA1 221103Z 08006KT 08/05 A2991 RMK A01 T00770054  RH  085%=      5-min Rain = 0
KWA1 221104Z 08006KT 08/05 A2991 RMK A01 T00780054  RH  085%=      5-min Rain = 0
KWA1 221105Z 08006KT 08/05 A2991 RMK A01 T00780054  RH  085%=      5-min Rain = 0
KWA1 221106Z 08007KT 08/05 A2991 RMK A01 T00780054  RH  085%=      5-min Rain = 0
KWA1 221107Z 08007KT 08/05 A2991 RMK A01 T00780054  RH  085%=      5-min Rain = 0
KWA1 221108Z 08007KT 08/06 A2991 RMK A01 T00780055  RH  085%=      5-min Rain = 0
KWA1 221109Z 08005KT 08/06 A2991 RMK A01 T00780055  RH  085%=      5-min Rain = 0
KWA1 221110Z 08005KT 08/05 A2991 RMK A01 T00780054  RH  085%=      5-min Rain = 0
KWA1 221111Z 08005KT 08/05 A2991 RMK A01 T00780054  RH  085%=      5-min Rain = 0
KWA1 221112Z 08005KT 08/06 A2991 RMK A01 T00780055  RH  085%=      5-min Rain = 0
KWA1 221113Z 08004KT 08/06 A2991 RMK A01 T00780055  RH  085%=      5-min Rain = 0
KWA1 221114Z 07005KT 08/06 A2991 RMK A01 T00780055  RH  085%=      5-min Rain = 0
KWA1 221115Z 08006KT 08/06 A2991 RMK A01 T00790055  RH  085%=      5-min Rain = 0
KWA1 221116Z 08006KT 08/06 A2991 RMK A01 T00790055  RH  085%=      5-min Rain = 0
KWA1 221117Z 08006KT 08/06 A2991 RMK A01 T00790055  RH  085%=      5-min Rain = 0
KWA1 221118Z 08005KT 08/06 A2991 RMK A01 T00780055  RH  085%=      5-min Rain = 0
KWA1 221119Z 08006KT 08/06 A2991 RMK A01 T00790055  RH  085%=      5-min Rain = 0
KWA1 221120Z 08007KT 08/06 A2991 RMK A01 T00790055  RH  085%=      5-min Rain = 0
KWA1 221121Z 08007KT 08/06 A2991 RMK A01 T00790056  RH  085%=      5-min Rain = 0
KWA1 221122Z 08007KT 08/06 A2991 RMK A01 T00790055  RH  085%=      5-min Rain = 0
KWA1 221123Z 08006KT 08/06 A2991 RMK A01 T00790055  RH  085%=      5-min Rain = 0
KWA1 221124Z 08006KT 08/06 A2991 RMK A01 T00790055  RH  085%=      5-min Rain = 0
KWA1 221125Z 08007KT 08/06 A2991 RMK A01 T00790055  RH  085%=      5-min Rain = 0
KWA1 221126Z 08008KT 08/06 A2991 RMK A01 T00800056  RH  085%=      5-min Rain = 0
KWA1 221127Z 08007KT 08/06 A2991 RMK A01 T00790056  RH  085%=      5-min Rain = 0
KWA1 221128Z 08007KT 08/06 A2991 RMK A01 T00800056  RH  085%=      5-min Rain = 0
KWA1 221129Z 07006KT 08/06 A2991 RMK A01 T00800056  RH  085%=      5-min Rain = 0
KWA1 221130Z 08006KT 08/06 A2991 RMK A01 T00800056  RH  085%=      5-min Rain = 0
KWA1 221131Z 08006KT 08/06 A2991 RMK A01 T00800056  RH  085%=      5-min Rain = 0
KWA1 221132Z 08006KT 08/06 A2991 RMK A01 T00800056  RH  085%=      5-min Rain = 0
KWA1 221133Z 07006KT 08/06 A2991 RMK A01 T00800056  RH  085%=      5-min Rain = 0
KWA1 221134Z 07006KT 08/06 A2991 RMK A01 T00800056  RH  085%=      5-min Rain = 0
KWA1 221135Z 07005KT 08/06 A2991 RMK A01 T00800056  RH  085%=      5-min Rain = 0
KWA1 221136Z 07005KT 08/06 A2991 RMK A01 T00800056  RH  085%=      5-min Rain = 0
KWA1 221137Z 07006KT 08/06 A2991 RMK A01 T00810057  RH  085%=      5-min Rain = 0
KWA1 221138Z 08006KT 08/06 A2991 RMK A01 T00800056  RH  085%=      5-min Rain = 0
KWA1 221139Z 07005KT 08/06 A2991 RMK A01 T00800056  RH  085%=      5-min Rain = 0
KWA1 221140Z 08005KT 08/06 A2991 RMK A01 T00800057  RH  085%=      5-min Rain = 0
KWA1 221141Z 08005KT 08/06 A2991 RMK A01 T00810057  RH  085%=      5-min Rain = 0
KWA1 221142Z 08004KT 08/06 A2991 RMK A01 T00810057  RH  085%=      5-min Rain = 0
KWA1 221143Z 07005KT 08/06 A2991 RMK A01 T00810057  RH  085%=      5-min Rain = 0
KWA1 221144Z 07005KT 08/06 A2991 RMK A01 T00810057  RH  085%=      5-min Rain = 0
KWA1 221145Z 08005KT 08/06 A2991 RMK A01 T00810057  RH  085%=      5-min Rain = 0
KWA1 221146Z 08007KT 08/06 A2991 RMK A01 T00810057  RH  085%=      5-min Rain = 0
KWA1 221147Z 08006KT 08/06 A2991 RMK A01 T00810057  RH  085%=      5-min Rain = 0
KWA1 221148Z 09006KT 08/06 A2991 RMK A01 T00810057  RH  085%=      5-min Rain = 0
KWA1 221149Z 08005KT 08/06 A2991 RMK A01 T00810057  RH  085%=      5-min Rain = 0
KWA1 221150Z 08006KT 08/06 A2991 RMK A01 T00810057  RH  085%=      5-min Rain = 0
KWA1 221151Z 08006KT 08/06 A2991 RMK A01 T00810057  RH  085%=      5-min Rain = 0
KWA1 221152Z 08005KT 08/06 A2991 RMK A01 T00810057  RH  085%=      5-min Rain = 0
KWA1 221153Z 08006KT 08/06 A2991 RMK A01 T00820058  RH  085%=      5-min Rain = 0
KWA1 221154Z 07006KT 08/06 A2991 RMK A01 T00810058  RH  085%=      5-min Rain = 0
KWA1 221155Z 07006KT 08/06 A2991 RMK A01 T00820058  RH  085%=      5-min Rain = 0
KWA1 221156Z 07006KT 08/06 A2991 RMK A01 T00810058  RH  085%=      5-min Rain = 0
KWA1 221157Z 07007KT 08/06 A2991 RMK A01 T00810058  RH  085%=      5-min Rain = 0
KWA1 221158Z 07007KT 08/06 A2991 RMK A01 T00810058  RH  085%=      5-min Rain = 0
KWA1 221159Z 07006KT 08/06 A2991 RMK A01 T00820058  RH  085%=      5-min Rain = 0
KWA1 221200Z 07006KT 08/06 A2991 RMK A01 T00810058  RH  085%=      5-min Rain = 0
KWA1 221201Z 06006KT 08/06 A2991 RMK A01 T00820058  RH  085%=      5-min Rain = 0
KWA1 221202Z 06005KT 08/06 A2991 RMK A01 T00820059  RH  085%=      5-min Rain = 0
KWA1 221203Z 06005KT 08/06 A2991 RMK A01 T00820058  RH  085%=      5-min Rain = 0
KWA1 221204Z 06005KT 08/06 A2991 RMK A01 T00820059  RH  085%=      5-min Rain = 0
KWA1 221205Z 06004KT 08/06 A2991 RMK A01 T00820059  RH  085%=      5-min Rain = 0
KWA1 221206Z 06005KT 08/06 A2991 RMK A01 T00820058  RH  085%=      5-min Rain = 0
KWA1 221207Z 06005KT 08/06 A2991 RMK A01 T00820059  RH  085%=      5-min Rain = 0
KWA1 221208Z 07005KT 08/06 A2991 RMK A01 T00820059  RH  085%=      5-min Rain = 0
KWA1 221209Z 07005KT 08/06 A2991 RMK A01 T00820059  RH  085%=      5-min Rain = 0
KWA1 221210Z 07005KT 08/06 A2991 RMK A01 T00820059  RH  085%=      5-min Rain = 0
KWA1 221211Z 07006KT 08/06 A2992 RMK A01 T00820059  RH  085%=      5-min Rain = 0
KWA1 221212Z 07005KT 08/06 A2992 RMK A01 T00820059  RH  085%=      5-min Rain = 0
KWA1 221213Z 08005KT 08/06 A2992 RMK A01 T00820059  RH  085%=      5-min Rain = 0
KWA1 221214Z 08006KT 08/06 A2992 RMK A01 T00820059  RH  085%=      5-min Rain = 0
KWA1 221215Z 08005KT 08/06 A2992 RMK A01 T00820059  RH  085%=      5-min Rain = 0
KWA1 221216Z 08006KT 08/06 A2992 RMK A01 T00820059  RH  086%=      5-min Rain = 0
KWA1 221217Z 09005KT 08/06 A2992 RMK A01 T00820059  RH  086%=      5-min Rain = 0
KWA1 221218Z 08006KT 08/06 A2992 RMK A01 T00820059  RH  086%=      5-min Rain = 0
KWA1 221219Z 08005KT 08/06 A2992 RMK A01 T00820060  RH  086%=      5-min Rain = 0
KWA1 221220Z 08005KT 08/06 A2992 RMK A01 T00820060  RH  086%=      5-min Rain = 0
KWA1 221221Z 07004KT 08/06 A2992 RMK A01 T00820060  RH  086%=      5-min Rain = 0
KWA1 221222Z 07004KT 08/06 A2992 RMK A01 T00820060  RH  086%=      5-min Rain = 0
KWA1 221223Z 06004KT 08/06 A2992 RMK A01 T00830060  RH  086%=      5-min Rain = 0
KWA1 221224Z 06004KT 08/06 A2992 RMK A01 T00830060  RH  086%=      5-min Rain = 0
KWA1 221225Z 06004KT 08/06 A2992 RMK A01 T00830060  RH  086%=      5-min Rain = 0
KWA1 221226Z 05004KT 08/06 A2992 RMK A01 T00830060  RH  086%=      5-min Rain = 0
KWA1 221227Z 05004KT 08/06 A2992 RMK A01 T00830060  RH  086%=      5-min Rain = 0
KWA1 221228Z 05004KT 08/06 A2992 RMK A01 T00830060  RH  086%=      5-min Rain = 0
KWA1 221229Z 05004KT 08/06 A2992 RMK A01 T00830060  RH  086%=      5-min Rain = 0
KWA1 221230Z 04003KT 08/06 A2992 RMK A01 T00830060  RH  086%=      5-min Rain = 0
KWA1 221231Z 03003KT 08/06 A2993 RMK A01 T00830060  RH  086%=      5-min Rain = 0
KWA1 221232Z 04003KT 08/06 A2993 RMK A01 T00830060  RH  086%=      5-min Rain = 0
KWA1 221233Z 05004KT 08/06 A2992 RMK A01 T00830060  RH  085%=      5-min Rain = 0
KWA1 221234Z 05005KT 08/06 A2992 RMK A01 T00830060  RH  086%=      5-min Rain = 0
KWA1 221235Z 06005KT 08/06 A2992 RMK A01 T00830061  RH  086%=      5-min Rain = 0
KWA1 221236Z 05005KT 08/06 A2993 RMK A01 T00830061  RH  086%=      5-min Rain = 0
KWA1 221237Z 05004KT 08/06 A2993 RMK A01 T00830061  RH  086%=      5-min Rain = 0
KWA1 221238Z 05003KT 08/06 A2993 RMK A01 T00830061  RH  086%=      5-min Rain = 0
KWA1 221239Z 05003KT 08/06 A2993 RMK A01 T00830061  RH  086%=      5-min Rain = 0
KWA1 221240Z 05004KT 08/06 A2993 RMK A01 T00830061  RH  086%=      5-min Rain = 0
KWA1 221241Z 05004KT 08/06 A2993 RMK A01 T00830061  RH  086%=      5-min Rain = 0
KWA1 221242Z 05004KT 08/06 A2993 RMK A01 T00830061  RH  086%=      5-min Rain = 0
KWA1 221243Z 06004KT 08/06 A2993 RMK A01 T00830061  RH  086%=      5-min Rain = 0
KWA1 221244Z 06004KT 08/06 A2993 RMK A01 T00830061  RH  086%=      5-min Rain = 0
KWA1 221245Z 06004KT 08/06 A2993 RMK A01 T00830061  RH  086%=      5-min Rain = 0
KWA1 221246Z 07005KT 08/06 A2993 RMK A01 T00830061  RH  086%=      5-min Rain = 0
KWA1 221247Z 07005KT 08/06 A2993 RMK A01 T00840062  RH  086%=      5-min Rain = 0
KWA1 221248Z 07006KT 08/06 A2993 RMK A01 T00840062  RH  086%=      5-min Rain = 0
KWA1 221249Z 07007KT 08/06 A2993 RMK A01 T00840063  RH  086%=      5-min Rain = 0
KWA1 221250Z 07007KT 08/06 A2993 RMK A01 T00840063  RH  086%=      5-min Rain = 0
KWA1 221251Z 07006KT 08/06 A2993 RMK A01 T00840063  RH  086%=      5-min Rain = 0
KWA1 221252Z 07006KT 08/06 A2993 RMK A01 T00840063  RH  087%=      5-min Rain = 0
KWA1 221253Z 07007KT 08/06 A2993 RMK A01 T00840063  RH  086%=      5-min Rain = 0
KWA1 221254Z 07006KT 08/06 A2993 RMK A01 T00840063  RH  087%=      5-min Rain = 0
KWA1 221255Z 07006KT 08/06 A2994 RMK A01 T00840063  RH  087%=      5-min Rain = 0
KWA1 221256Z 07005KT 09/06 A2994 RMK A01 T00850063  RH  087%=      5-min Rain = 0
KWA1 221257Z 07006KT 09/06 A2994 RMK A01 T00850063  RH  087%=      5-min Rain = 0
KWA1 221258Z 07006KT 09/06 A2994 RMK A01 T00850063  RH  087%=      5-min Rain = 0
KWA1 221259Z 07007KT 09/06 A2994 RMK A01 T00850064  RH  087%=      5-min Rain = 0
KWA1 221300Z 08006KT 09/06 A2994 RMK A01 T00850064  RH  087%=      5-min Rain = 0
KWA1 221301Z 08006KT 09/06 A2994 RMK A01 T00850064  RH  087%=      5-min Rain = 0
KWA1 221302Z 07007KT 09/06 A2994 RMK A01 T00850064  RH  087%=      5-min Rain = 0
KWA1 221303Z 08007KT 09/06 A2994 RMK A01 T00850064  RH  087%=      5-min Rain = 0
KWA1 221304Z 08006KT 09/07 A2994 RMK A01 T00850065  RH  087%=      5-min Rain = 0
KWA1 221305Z 08006KT 09/07 A2994 RMK A01 T00850065  RH  087%=      5-min Rain = 0
KWA1 221306Z 07006KT 09/07 A2994 RMK A01 T00850065  RH  087%=      5-min Rain = 0
KWA1 221307Z 07006KT 09/07 A2994 RMK A01 T00850065  RH  087%=      5-min Rain = 0
KWA1 221308Z 08007KT 09/07 A2994 RMK A01 T00850065  RH  087%=      5-min Rain = 0
KWA1 221309Z 08007KT 09/07 A2994 RMK A01 T00850065  RH  087%=      5-min Rain = 0
KWA1 221310Z 08007KT 09/07 A2994 RMK A01 T00860065  RH  087%=      5-min Rain = 0
KWA1 221311Z 08007KT 09/07 A2994 RMK A01 T00860065  RH  087%=      5-min Rain = 0
KWA1 221312Z 08007KT 09/07 A2994 RMK A01 T00860065  RH  087%=      5-min Rain = 0
KWA1 221313Z 08007KT 09/07 A2994 RMK A01 T00850065  RH  087%=      5-min Rain = 0
KWA1 221314Z 08007KT 09/07 A2994 RMK A01 T00860066  RH  087%=      5-min Rain = 0
KWA1 221315Z 08007KT 09/07 A2994 RMK A01 T00860066  RH  087%=      5-min Rain = 0
KWA1 221316Z 08007KT 09/07 A2994 RMK A01 T00860066  RH  087%=      5-min Rain = 0
KWA1 221317Z 08007KT 09/07 A2994 RMK A01 T00860066  RH  087%=      5-min Rain = 0
KWA1 221318Z 08007KT 09/07 A2995 RMK A01 T00860066  RH  087%=      5-min Rain = 0
KWA1 221319Z 07008KT 09/07 A2995 RMK A01 T00870066  RH  087%=      5-min Rain = 0
KWA1 221320Z 08007KT 09/07 A2995 RMK A01 T00870067  RH  087%=      5-min Rain = 0
KWA1 221321Z 08007KT 09/07 A2995 RMK A01 T00870067  RH  087%=      5-min Rain = 0
KWA1 221322Z 07008KT 09/07 A2995 RMK A01 T00870067  RH  087%=      5-min Rain = 0
KWA1 221323Z 07007KT 09/07 A2995 RMK A01 T00870068  RH  087%=      5-min Rain = 0
KWA1 221324Z 07007KT 09/07 A2995 RMK A01 T00870068  RH  088%=      5-min Rain = 0
KWA1 221325Z 07006KT 09/07 A2995 RMK A01 T00870068  RH  088%=      5-min Rain = 0
KWA1 221326Z 07005KT 09/07 A2995 RMK A01 T00880068  RH  088%=      5-min Rain = 0
KWA1 221327Z 07006KT 09/07 A2995 RMK A01 T00880068  RH  088%=      5-min Rain = 0
KWA1 221328Z 07007KT 09/07 A2995 RMK A01 T00880069  RH  088%=      5-min Rain = 0
KWA1 221329Z 07006KT 09/07 A2995 RMK A01 T00880069  RH  088%=      5-min Rain = 0
KWA1 221330Z 07006KT 09/07 A2995 RMK A01 T00880069  RH  088%=      5-min Rain = 0
KWA1 221331Z 07006KT 09/07 A2995 RMK A01 T00880070  RH  088%=      5-min Rain = 0
KWA1 221332Z 07005KT 09/07 A2995 RMK A01 T00880070  RH  088%=      5-min Rain = 0
KWA1 221333Z 06005KT 09/07 A2995 RMK A01 T00880070  RH  088%=      5-min Rain = 0
KWA1 221334Z 07004KT 09/07 A2995 RMK A01 T00880070  RH  088%=      5-min Rain = 0
KWA1 221335Z 06004KT 09/07 A2995 RMK A01 T00880070  RH  088%=      5-min Rain = 0
KWA1 221336Z 06003KT 09/07 A2995 RMK A01 T00890070  RH  088%=      5-min Rain = 0
KWA1 221337Z 06004KT 09/07 A2994 RMK A01 T00890070  RH  088%=      5-min Rain = 0
KWA1 221338Z 07004KT 09/07 A2994 RMK A01 T00890070  RH  088%=      5-min Rain = 0
KWA1 221339Z 07004KT 09/07 A2994 RMK A01 T00890069  RH  088%=      5-min Rain = 0
KWA1 221340Z 08004KT 09/07 A2994 RMK A01 T00890069  RH  088%=      5-min Rain = 0
KWA1 221341Z 08004KT 09/07 A2994 RMK A01 T00890069  RH  088%=      5-min Rain = 0
KWA1 221342Z 08005KT 09/07 A2994 RMK A01 T00890070  RH  088%=      5-min Rain = 0
KWA1 221343Z 08005KT 09/07 A2994 RMK A01 T00900070  RH  088%=      5-min Rain = 0
KWA1 221344Z 08006KT 09/07 A2994 RMK A01 T00900071  RH  088%=      5-min Rain = 0
KWA1 221345Z 08007KT 09/07 A2994 RMK A01 T00900071  RH  088%=      5-min Rain = 0
KWA1 221346Z 08007KT 09/07 A2994 RMK A01 T00900071  RH  088%=      5-min Rain = 0
KWA1 221347Z 08006KT 09/07 A2994 RMK A01 T00900072  RH  088%=      5-min Rain = 0
KWA1 221348Z 08006KT 09/07 A2994 RMK A01 T00900072  RH  088%=      5-min Rain = 0
KWA1 221349Z 09006KT 09/07 A2994 RMK A01 T00900072  RH  088%=      5-min Rain = 0
KWA1 221350Z 08006KT 09/07 A2994 RMK A01 T00910073  RH  089%=      5-min Rain = 0
KWA1 221351Z 08007KT 09/07 A2994 RMK A01 T00910073  RH  089%=      5-min Rain = 0
KWA1 221352Z 08007KT 09/07 A2994 RMK A01 T00910073  RH  089%=      5-min Rain = 0
KWA1 221353Z 08008KT 09/07 A2994 RMK A01 T00910073  RH  089%=      5-min Rain = 0
KWA1 221354Z 07009KT 09/07 A2994 RMK A01 T00910073  RH  089%=      5-min Rain = 0
KWA1 221355Z 08010KT 09/07 A2994 RMK A01 T00910074  RH  089%=      5-min Rain = 0
KWA1 221356Z 07010KT 09/07 A2994 RMK A01 T00910073  RH  089%=      5-min Rain = 0
KWA1 221357Z 08010KT 09/07 A2995 RMK A01 T00910074  RH  089%=      5-min Rain = 0
KWA1 221358Z 08009KT 09/07 A2995 RMK A01 T00910074  RH  089%=      5-min Rain = 0
KWA1 221359Z 07009KT 09/07 A2995 RMK A01 T00910074  RH  089%=      5-min Rain = 0
KWA1 221400Z 07008KT 09/07 A2995 RMK A01 T00910073  RH  088%=      5-min Rain = 0
KWA1 221401Z 07008KT 09/07 A2995 RMK A01 T00900072  RH  089%=      5-min Rain = 0
KWA1 221402Z 07007KT 09/07 A2995 RMK A01 T00900073  RH  089%=      5-min Rain = 0
KWA1 221403Z 07007KT 09/07 A2995 RMK A01 T00900072  RH  089%=      5-min Rain = 0
KWA1 221404Z 07008KT 09/07 A2995 RMK A01 T00900072  RH  089%=      5-min Rain = 0
KWA1 221405Z 07007KT 09/07 A2995 RMK A01 T00900073  RH  089%=      5-min Rain = 0
KWA1 221406Z 07008KT 09/07 A2995 RMK A01 T00900073  RH  089%=      5-min Rain = 0
KWA1 221407Z 07007KT 09/07 A2995 RMK A01 T00890073  RH  089%=      5-min Rain = 0
KWA1 221408Z 07007KT 09/07 A2995 RMK A01 T00890073  RH  090%=      5-min Rain = 0
KWA1 221409Z 07008KT 09/07 A2995 RMK A01 T00890073  RH  090%=      5-min Rain = 0
KWA1 221410Z 07009KT 09/07 A2995 RMK A01 T00890073  RH  090%=      5-min Rain = 0
KWA1 221411Z 07009KT 09/07 A2995 RMK A01 T00890073  RH  090%=      5-min Rain = 0
KWA1 221412Z 07009KT 09/07 A2995 RMK A01 T00890074  RH  091%=      5-min Rain = 0
KWA1 221413Z 08008KT 09/07 A2995 RMK A01 T00880074  RH  091%=      5-min Rain = 0
KWA1 221414Z 08008KT 09/08 A2995 RMK A01 T00880075  RH  091%=      5-min Rain = 0
KWA1 221415Z 08009KT 09/08 A2995 RMK A01 T00880075  RH  091%=      5-min Rain = 0
KWA1 221416Z 08008KT 09/08 A2995 RMK A01 T00880075  RH  091%=      5-min Rain = 0
KWA1 221417Z 08009KT 09/08 A2995 RMK A01 T00880075  RH  091%=      5-min Rain = 0
KWA1 221418Z 08010KT 09/08 A2994 RMK A01 T00880075  RH  091%=      5-min Rain = 0
KWA1 221419Z 08010KT 09/08 A2994 RMK A01 T00880075  RH  091%=      5-min Rain = 0
KWA1 221420Z 09009KT 09/08 A2994 RMK A01 T00890076  RH  092%=      5-min Rain = 0
KWA1 221421Z 09009KT 09/08 A2994 RMK A01 T00880076  RH  092%=      5-min Rain = 0
KWA1 221422Z 09008KT 09/08 A2994 RMK A01 T00880076  RH  092%=      5-min Rain = 0
KWA1 221423Z 09008KT 09/08 A2994 RMK A01 T00880076  RH  092%=      5-min Rain = 0
KWA1 221424Z 09008KT 09/08 A2994 RMK A01 T00880076  RH  092%=      5-min Rain = 0
KWA1 221425Z 09008KT 09/08 A2994 RMK A01 T00890077  RH  092%=      5-min Rain = 0
KWA1 221426Z 09008KT 09/08 A2994 RMK A01 T00890077  RH  092%=      5-min Rain = 0
KWA1 221427Z 09008KT 09/08 A2994 RMK A01 T00890077  RH  092%=      5-min Rain = 0
KWA1 221428Z 09008KT 09/08 A2994 RMK A01 T00890077  RH  092%=      5-min Rain = 0
KWA1 221429Z 08008KT 09/08 A2994 RMK A01 T00890077  RH  092%=      5-min Rain = 0
KWA1 221430Z 08008KT 09/08 A2994 RMK A01 T00890078  RH  092%=      5-min Rain = 0
KWA1 221431Z 08008KT 09/08 A2995 RMK A01 T00890078  RH  092%=      5-min Rain = 0
KWA1 221432Z 08007KT 09/08 A2995 RMK A01 T00900078  RH  092%=      5-min Rain = 0
KWA1 221433Z 08006KT 09/08 A2995 RMK A01 T00900078  RH  092%=      5-min Rain = 0
KWA1 221434Z 07007KT 09/08 A2995 RMK A01 T00910079  RH  092%=      5-min Rain = 0
KWA1 221435Z 07007KT 09/08 A2995 RMK A01 T00910078  RH  092%=      5-min Rain = 0
KWA1 221436Z 07006KT 09/08 A2995 RMK A01 T00910079  RH  092%=      5-min Rain = 0
KWA1 221437Z 07006KT 09/08 A2995 RMK A01 T00920079  RH  092%=      5-min Rain = 0
KWA1 221438Z 07006KT 09/08 A2995 RMK A01 T00920079  RH  092%=      5-min Rain = 0
KWA1 221439Z 07005KT 09/08 A2995 RMK A01 T00920079  RH  092%=      5-min Rain = 0
KWA1 221440Z 06006KT 09/08 A2996 RMK A01 T00930080  RH  091%=      5-min Rain = 0
KWA1 221441Z 07006KT 09/08 A2996 RMK A01 T00930079  RH  091%=      5-min Rain = 0
KWA1 221442Z 07007KT 09/08 A2996 RMK A01 T00930080  RH  091%=      5-min Rain = 0
KWA1 221443Z 07006KT 09/08 A2996 RMK A01 T00930080  RH  092%=      5-min Rain = 0
KWA1 221444Z 08005KT 09/08 A2996 RMK A01 T00930081  RH  092%=      5-min Rain = 0
KWA1 221445Z 07005KT 09/08 A2996 RMK A01 T00930081  RH  092%=      5-min Rain = 0
KWA1 221446Z 06004KT 09/08 A2996 RMK A01 T00930081  RH  092%=      5-min Rain = 0
KWA1 221447Z 07004KT 09/08 A2996 RMK A01 T00930081  RH  092%=      5-min Rain = 0
KWA1 221448Z 07004KT 09/08 A2996 RMK A01 T00940082  RH  092%=      5-min Rain = 0
KWA1 221449Z 07004KT 09/08 A2996 RMK A01 T00940082  RH  092%=      5-min Rain = 0
KWA1 221450Z 08004KT 09/08 A2996 RMK A01 T00940082  RH  092%=      5-min Rain = 0
KWA1 221451Z 07003KT 09/08 A2996 RMK A01 T00940082  RH  092%=      5-min Rain = 0
KWA1 221452Z 06004KT 10/08 A2996 RMK A01 T00950082  RH  092%=      5-min Rain = 0
KWA1 221453Z 06005KT 10/08 A2996 RMK A01 T00950082  RH  092%=      5-min Rain = 0
KWA1 221454Z 07005KT 10/08 A2996 RMK A01 T00950082  RH  092%=      5-min Rain = 0
KWA1 221455Z 07005KT 10/08 A2996 RMK A01 T00950083  RH  092%=      5-min Rain = 0
KWA1 221456Z 07006KT 10/08 A2996 RMK A01 T00960083  RH  092%=      5-min Rain = 0
KWA1 221457Z 07005KT 10/08 A2996 RMK A01 T00960084  RH  092%=      5-min Rain = 0
KWA1 221458Z 05005KT 10/08 A2996 RMK A01 T00960084  RH  092%=      5-min Rain = 0
KWA1 221459Z 05005KT 10/08 A2996 RMK A01 T00960084  RH  092%=      5-min Rain = 0
KWA1 221500Z 05006KT 10/08 A2996 RMK A01 T00970084  RH  092%=      5-min Rain = 0
KWA1 221501Z 03005KT 10/09 A2996 RMK A01 T00970085  RH  092%=      5-min Rain = 0
KWA1 221502Z 03005KT 10/09 A2997 RMK A01 T00980085  RH  092%=      5-min Rain = 0
KWA1 221503Z 03005KT 10/09 A2997 RMK A01 T00980085  RH  091%=      5-min Rain = 0
KWA1 221504Z 02005KT 10/09 A2997 RMK A01 T00980085  RH  091%=      5-min Rain = 0
KWA1 221505Z 02006KT 10/08 A2997 RMK A01 T00980084  RH  091%=      5-min Rain = 0
KWA1 221506Z 03005KT 10/08 A2997 RMK A01 T00980084  RH  091%=      5-min Rain = 0
KWA1 221507Z 03006KT 10/09 A2997 RMK A01 T00980085  RH  091%=      5-min Rain = 0
KWA1 221508Z 02006KT 10/09 A2997 RMK A01 T00980085  RH  091%=      5-min Rain = 0
KWA1 221509Z 02006KT 10/09 A2997 RMK A01 T00990085  RH  091%=      5-min Rain = 0
KWA1 221510Z 03006KT 10/09 A2997 RMK A01 T00980085  RH  091%=      5-min Rain = 0
KWA1 221511Z 03005KT 10/09 A2997 RMK A01 T00980085  RH  091%=      5-min Rain = 0
KWA1 221512Z 02006KT 10/09 A2997 RMK A01 T00980085  RH  092%=      5-min Rain = 0
KWA1 221513Z 03005KT 10/09 A2997 RMK A01 T00980085  RH  092%=      5-min Rain = 0
KWA1 221514Z 03005KT 10/09 A2997 RMK A01 T00980085  RH  092%=      5-min Rain = 0
KWA1 221515Z 04005KT 10/09 A2997 RMK A01 T00980086  RH  092%=      5-min Rain = 0
KWA1 221516Z 04004KT 10/09 A2997 RMK A01 T00980085  RH  092%=      5-min Rain = 0
KWA1 221517Z 04004KT 10/09 A2997 RMK A01 T00970085  RH  092%=      5-min Rain = 0
KWA1 221518Z 04005KT 10/09 A2997 RMK A01 T00970085  RH  092%=      5-min Rain = 0
KWA1 221519Z 04005KT 10/09 A2997 RMK A01 T00980085  RH  092%=      5-min Rain = 0
KWA1 221520Z 04006KT 10/09 A2997 RMK A01 T00980085  RH  092%=      5-min Rain = 0
KWA1 221521Z 05005KT 10/09 A2997 RMK A01 T00970085  RH  092%=      5-min Rain = 0
KWA1 221522Z 05005KT 10/09 A2997 RMK A01 T00970085  RH  092%=      5-min Rain = 0
KWA1 221523Z 04005KT 10/08 A2997 RMK A01 T00970084  RH  092%=      5-min Rain = 0
KWA1 221524Z 04005KT 10/09 A2997 RMK A01 T00970085  RH  092%=      5-min Rain = 0
KWA1 221525Z 04005KT 10/09 A2997 RMK A01 T00970085  RH  092%=      5-min Rain = 0
KWA1 221526Z 04006KT 10/08 A2997 RMK A01 T00960084  RH  092%=      5-min Rain = 0
KWA1 221527Z 05006KT 10/08 A2997 RMK A01 T00960084  RH  092%=      5-min Rain = 0
KWA1 221528Z 05006KT 10/09 A2997 RMK A01 T00960085  RH  092%=      5-min Rain = 0
KWA1 221529Z 05006KT 10/08 A2997 RMK A01 T00970084  RH  092%=      5-min Rain = 0
KWA1 221530Z 06007KT 10/08 A2997 RMK A01 T00970084  RH  092%=      5-min Rain = 0
KWA1 221531Z 06006KT 10/08 A2997 RMK A01 T00970084  RH  092%=      5-min Rain = 0
KWA1 221532Z 05006KT 10/08 A2997 RMK A01 T00970084  RH  092%=      5-min Rain = 0
KWA1 221533Z 05007KT 10/08 A2997 RMK A01 T00960084  RH  092%=      5-min Rain = 0
KWA1 221534Z 06007KT 10/08 A2997 RMK A01 T00960084  RH  092%=      5-min Rain = 0
KWA1 221535Z 06006KT 10/08 A2997 RMK A01 T00960084  RH  092%=      5-min Rain = 0
KWA1 221536Z 05007KT 10/08 A2997 RMK A01 T00960084  RH  092%=      5-min Rain = 0
KWA1 221537Z 05005KT 10/08 A2997 RMK A01 T00960084  RH  092%=      5-min Rain = 0
KWA1 221538Z 05006KT 10/08 A2997 RMK A01 T00960084  RH  093%=      5-min Rain = 0
KWA1 221539Z 05007KT 10/08 A2997 RMK A01 T00960084  RH  093%=      5-min Rain = 0
KWA1 221540Z 06006KT 10/08 A2997 RMK A01 T00960084  RH  092%=      5-min Rain = 0
KWA1 221541Z 06007KT 10/08 A2997 RMK A01 T00960084  RH  093%=      5-min Rain = 0
KWA1 221542Z 06007KT 10/08 A2997 RMK A01 T00950084  RH  092%=      5-min Rain = 0
KWA1 221543Z 07006KT 10/08 A2997 RMK A01 T00950084  RH  093%=      5-min Rain = 0
KWA1 221544Z 06007KT 10/09 A2997 RMK A01 T00960085  RH  093%=      5-min Rain = 0
KWA1 221545Z 07006KT 10/08 A2997 RMK A01 T00960084  RH  092%=      5-min Rain = 0
KWA1 221546Z 07007KT 10/08 A2997 RMK A01 T00960084  RH  092%=      5-min Rain = 0
KWA1 221547Z 07007KT 10/08 A2997 RMK A01 T00960084  RH  092%=      5-min Rain = 0
KWA1 221548Z 07007KT 10/08 A2997 RMK A01 T00960084  RH  092%=      5-min Rain = 0
KWA1 221549Z 07007KT 10/08 A2997 RMK A01 T00970084  RH  092%=      5-min Rain = 0
KWA1 221550Z 06006KT 10/08 A2997 RMK A01 T00960084  RH  092%=      5-min Rain = 0
KWA1 221551Z 07007KT 10/09 A2997 RMK A01 T00960085  RH  092%=      5-min Rain = 0
KWA1 221552Z 07005KT 10/09 A2997 RMK A01 T00970086  RH  092%=      5-min Rain = 0
KWA1 221553Z 07006KT 10/09 A2997 RMK A01 T00980086  RH  092%=      5-min Rain = 0
KWA1 221554Z 06006KT 10/09 A2997 RMK A01 T00980085  RH  092%=      5-min Rain = 0
KWA1 221555Z 06005KT 10/09 A2997 RMK A01 T00990086  RH  092%=      5-min Rain = 0
KWA1 221556Z 05006KT 10/09 A2997 RMK A01 T00980085  RH  092%=      5-min Rain = 0
KWA1 221557Z 05006KT 10/09 A2997 RMK A01 T00980085  RH  091%=      5-min Rain = 0
KWA1 221558Z 05005KT 10/09 A2997 RMK A01 T00980085  RH  092%=      5-min Rain = 0
KWA1 221559Z 05005KT 10/09 A2997 RMK A01 T00980086  RH  092%=      5-min Rain = 0
KWA1 221600Z 06005KT 10/09 A2997 RMK A01 T00990086  RH  092%=      5-min Rain = 0
KWA1 221601Z 06006KT 10/09 A2997 RMK A01 T00990085  RH  091%=      5-min Rain = 0
KWA1 221602Z 06005KT 10/08 A2997 RMK A01 T00980084  RH  091%=      5-min Rain = 0
KWA1 221603Z 06005KT 10/09 A2997 RMK A01 T00980085  RH  091%=      5-min Rain = 0
KWA1 221604Z 06006KT 10/09 A2997 RMK A01 T00980085  RH  092%=      5-min Rain = 0
KWA1 221605Z 07005KT 10/09 A2997 RMK A01 T00980085  RH  092%=      5-min Rain = 0
KWA1 221606Z 06004KT 10/09 A2997 RMK A01 T00980085  RH  092%=      5-min Rain = 0
KWA1 221607Z 05005KT 10/09 A2997 RMK A01 T00980085  RH  092%=      5-min Rain = 0
KWA1 221608Z 05005KT 10/09 A2997 RMK A01 T00980085  RH  092%=      5-min Rain = 0
KWA1 221609Z 06004KT 10/09 A2997 RMK A01 T00980086  RH  092%=      5-min Rain = 0
KWA1 221610Z 07005KT 10/09 A2997 RMK A01 T00990086  RH  092%=      5-min Rain = 0
KWA1 221611Z 06005KT 10/09 A2997 RMK A01 T00990086  RH  092%=      5-min Rain = 0
KWA1 221612Z 06005KT 10/09 A2997 RMK A01 T00990086  RH  092%=      5-min Rain = 0
KWA1 221613Z 07006KT 10/09 A2997 RMK A01 T01000087  RH  092%=      5-min Rain = 0
KWA1 221614Z 06006KT 10/09 A2997 RMK A01 T01000087  RH  091%=      5-min Rain = 0
KWA1 221615Z 06005KT 10/09 A2997 RMK A01 T01000087  RH  091%=      5-min Rain = 0
KWA1 221616Z 06006KT 10/09 A2997 RMK A01 T01000087  RH  092%=      5-min Rain = 0
KWA1 221617Z 06006KT 10/09 A2997 RMK A01 T01000087  RH  092%=      5-min Rain = 0
KWA1 221618Z 06006KT 10/09 A2997 RMK A01 T01000087  RH  092%=      5-min Rain = 0
KWA1 221619Z 06006KT 10/09 A2996 RMK A01 T01000087  RH  092%=      5-min Rain = 0
KWA1 221620Z 07006KT 10/09 A2996 RMK A01 T01000088  RH  092%=      5-min Rain = 0
KWA1 221621Z 07006KT 10/09 A2996 RMK A01 T01010088  RH  092%=      5-min Rain = 0
KWA1 221622Z 07005KT 10/09 A2996 RMK A01 T01020088  RH  091%=      5-min Rain = 0
KWA1 221623Z 08006KT 10/09 A2996 RMK A01 T01010088  RH  091%=      5-min Rain = 0
KWA1 221624Z 08006KT 10/09 A2996 RMK A01 T01010087  RH  091%=      5-min Rain = 0
KWA1 221625Z 08006KT 10/09 A2996 RMK A01 T01020088  RH  091%=      5-min Rain = 0
KWA1 221626Z 08006KT 10/09 A2996 RMK A01 T01020088  RH  091%=      5-min Rain = 0
KWA1 221627Z 08006KT 10/09 A2996 RMK A01 T01020088  RH  091%=      5-min Rain = 0
KWA1 221628Z 08006KT 10/09 A2996 RMK A01 T01030089  RH  091%=      5-min Rain = 0
KWA1 221629Z 09006KT 10/09 A2996 RMK A01 T01030088  RH  091%=      5-min Rain = 0
KWA1 221630Z 08006KT 10/09 A2996 RMK A01 T01030089  RH  091%=      5-min Rain = 0
KWA1 221631Z 08005KT 10/09 A2996 RMK A01 T01040090  RH  091%=      5-min Rain = 0
KWA1 221632Z 08006KT 10/09 A2996 RMK A01 T01040090  RH  091%=      5-min Rain = 0
KWA1 221633Z 08005KT 11/09 A2996 RMK A01 T01050090  RH  091%=      5-min Rain = 0
KWA1 221634Z 07005KT 11/09 A2996 RMK A01 T01050090  RH  090%=      5-min Rain = 0
KWA1 221635Z 07006KT 11/09 A2996 RMK A01 T01060091  RH  090%=      5-min Rain = 0
KWA1 221636Z 08006KT 11/09 A2996 RMK A01 T01060091  RH  090%=      5-min Rain = 0
KWA1 221637Z 08005KT 11/09 A2996 RMK A01 T01060090  RH  090%=      5-min Rain = 0
KWA1 221638Z 07006KT 11/09 A2996 RMK A01 T01060091  RH  090%=      5-min Rain = 0
KWA1 221639Z 07006KT 11/09 A2996 RMK A01 T01060091  RH  090%=      5-min Rain = 0
KWA1 221640Z 08006KT 11/09 A2996 RMK A01 T01060091  RH  090%=      5-min Rain = 0
KWA1 221641Z 07006KT 11/09 A2996 RMK A01 T01070092  RH  090%=      5-min Rain = 0
KWA1 221642Z 08006KT 11/09 A2996 RMK A01 T01080092  RH  090%=      5-min Rain = 0
KWA1 221643Z 08006KT 11/09 A2996 RMK A01 T01080092  RH  090%=      5-min Rain = 0
KWA1 221644Z 08005KT 11/09 A2996 RMK A01 T01090092  RH  089%=      5-min Rain = 0
KWA1 221645Z 07005KT 11/09 A2996 RMK A01 T01080092  RH  090%=      5-min Rain = 0
KWA1 221646Z 06004KT 11/09 A2996 RMK A01 T01080092  RH  090%=      5-min Rain = 0
KWA1 221647Z 07005KT 11/09 A2996 RMK A01 T01080092  RH  090%=      5-min Rain = 0
KWA1 221648Z 08004KT 11/09 A2996 RMK A01 T01080092  RH  090%=      5-min Rain = 0
KWA1 221649Z 07004KT 11/09 A2996 RMK A01 T01080092  RH  090%=      5-min Rain = 0
KWA1 221650Z 08005KT 11/09 A2996 RMK A01 T01080093  RH  090%=      5-min Rain = 0
KWA1 221651Z 08005KT 11/09 A2996 RMK A01 T01080092  RH  089%=      5-min Rain = 0
KWA1 221652Z 09005KT 11/09 A2996 RMK A01 T01090092  RH  090%=      5-min Rain = 0
KWA1 221653Z 08005KT 11/09 A2996 RMK A01 T01080092  RH  090%=      5-min Rain = 0
KWA1 221654Z 08005KT 11/09 A2996 RMK A01 T01080092  RH  090%=      5-min Rain = 0
KWA1 221655Z 09005KT 11/09 A2996 RMK A01 T01100094  RH  090%=      5-min Rain = 0
KWA1 221656Z 08005KT 11/09 A2996 RMK A01 T01100094  RH  090%=      5-min Rain = 0
KWA1 221657Z 07006KT 11/10 A2996 RMK A01 T01110095  RH  090%=      5-min Rain = 0
KWA1 221658Z 09005KT 11/09 A2996 RMK A01 T01110094  RH  089%=      5-min Rain = 0
KWA1 221659Z 09005KT 11/10 A2996 RMK A01 T01120095  RH  089%=      5-min Rain = 0
KWA1 221700Z 09006KT 11/10 A2996 RMK A01 T01120095  RH  089%=      5-min Rain = 0
KWA1 221701Z 07006KT 11/10 A2996 RMK A01 T01120095  RH  089%=      5-min Rain = 0
KWA1 221702Z 08006KT 11/09 A2996 RMK A01 T01120094  RH  089%=      5-min Rain = 0
KWA1 221703Z 08006KT 11/09 A2996 RMK A01 T01120094  RH  089%=      5-min Rain = 0
KWA1 221704Z 07006KT 11/10 A2996 RMK A01 T01120095  RH  089%=      5-min Rain = 0
KWA1 221705Z 07005KT 11/09 A2996 RMK A01 T01120094  RH  089%=      5-min Rain = 0
KWA1 221706Z 08007KT 11/10 A2996 RMK A01 T01120095  RH  089%=      5-min Rain = 0
KWA1 221707Z 09006KT 11/10 A2996 RMK A01 T01120095  RH  089%=      5-min Rain = 0
KWA1 221708Z 08005KT 11/10 A2996 RMK A01 T01130095  RH  089%=      5-min Rain = 0
KWA1 221709Z 08006KT 11/10 A2996 RMK A01 T01130097  RH  089%=      5-min Rain = 0
KWA1 221710Z 09006KT 11/10 A2996 RMK A01 T01140096  RH  089%=      5-min Rain = 0
KWA1 221711Z 08005KT 11/10 A2996 RMK A01 T01140096  RH  089%=      5-min Rain = 0
KWA1 221712Z 08006KT 11/10 A2996 RMK A01 T01140096  RH  089%=      5-min Rain = 0
KWA1 221713Z 08006KT 11/10 A2996 RMK A01 T01140096  RH  089%=      5-min Rain = 0
KWA1 221714Z 08005KT 11/10 A2996 RMK A01 T01140097  RH  089%=      5-min Rain = 0
KWA1 221715Z 08005KT 11/10 A2996 RMK A01 T01140096  RH  089%=      5-min Rain = 0
KWA1 221716Z 07005KT 12/10 A2996 RMK A01 T01150097  RH  089%=      5-min Rain = 0
KWA1 221717Z 08006KT 12/10 A2996 RMK A01 T01150097  RH  089%=      5-min Rain = 0
KWA1 221718Z 09006KT 12/10 A2996 RMK A01 T01160098  RH  089%=      5-min Rain = 0
KWA1 221719Z 09005KT 12/10 A2996 RMK A01 T01170099  RH  089%=      5-min Rain = 0
KWA1 221720Z 08006KT 12/10 A2996 RMK A01 T01180099  RH  088%=      5-min Rain = 0
KWA1 221721Z 08005KT 12/10 A2996 RMK A01 T01190099  RH  088%=      5-min Rain = 0
KWA1 221722Z 08005KT 12/10 A2996 RMK A01 T01180098  RH  087%=      5-min Rain = 0
KWA1 221723Z 10005KT 12/10 A2996 RMK A01 T01180099  RH  088%=      5-min Rain = 0
KWA1 221724Z 10005KT 12/10 A2996 RMK A01 T01180098  RH  088%=      5-min Rain = 0
KWA1 221725Z 09005KT 12/10 A2996 RMK A01 T01180099  RH  088%=      5-min Rain = 0
KWA1 221726Z 08004KT 12/10 A2996 RMK A01 T01180099  RH  088%=      5-min Rain = 0
KWA1 221727Z 08005KT 12/10 A2996 RMK A01 T01180099  RH  088%=      5-min Rain = 0
KWA1 221728Z 09005KT 12/10 A2996 RMK A01 T01190099  RH  088%=      5-min Rain = 0
KWA1 221729Z 08005KT 12/10 A2996 RMK A01 T01190099  RH  088%=      5-min Rain = 0
KWA1 221730Z 07004KT 12/10 A2995 RMK A01 T01180099  RH  088%=      5-min Rain = 0
KWA1 221731Z 07004KT 12/10 A2995 RMK A01 T01190101  RH  088%=      5-min Rain = 0
KWA1 221732Z 07005KT 12/10 A2995 RMK A01 T01210102  RH  088%=      5-min Rain = 0
KWA1 221733Z 07004KT 12/10 A2995 RMK A01 T01210100  RH  087%=      5-min Rain = 0
KWA1 221734Z 06004KT 12/10 A2995 RMK A01 T01210101  RH  087%=      5-min Rain = 0
KWA1 221735Z 05004KT 12/10 A2995 RMK A01 T01210101  RH  088%=      5-min Rain = 0
KWA1 221736Z 06004KT 12/10 A2995 RMK A01 T01210101  RH  087%=      5-min Rain = 0
KWA1 221737Z 06004KT 12/10 A2995 RMK A01 T01210100  RH  087%=      5-min Rain = 0
KWA1 221738Z 07004KT 12/10 A2995 RMK A01 T01210101  RH  087%=      5-min Rain = 0
KWA1 221739Z 07004KT 12/10 A2995 RMK A01 T01210101  RH  087%=      5-min Rain = 0
KWA1 221740Z 08003KT 12/10 A2995 RMK A01 T01210100  RH  087%=      5-min Rain = 0
KWA1 221741Z 09004KT 12/10 A2995 RMK A01 T01210101  RH  088%=      5-min Rain = 0
KWA1 221742Z 10004KT 12/10 A2995 RMK A01 T01220101  RH  087%=      5-min Rain = 0
KWA1 221743Z 10003KT 12/10 A2995 RMK A01 T01210100  RH  087%=      5-min Rain = 0
KWA1 221744Z 08002KT 12/10 A2995 RMK A01 T01210101  RH  088%=      5-min Rain = 0
KWA1 221745Z 09003KT 12/10 A2995 RMK A01 T01220102  RH  088%=      5-min Rain = 0
KWA1 221746Z 09003KT 12/10 A2995 RMK A01 T01220102  RH  087%=      5-min Rain = 0
KWA1 221747Z 10003KT 12/10 A2995 RMK A01 T01220101  RH  087%=      5-min Rain = 0
KWA1 221748Z 09002KT 12/10 A2995 RMK A01 T01220102  RH  087%=      5-min Rain = 0
KWA1 221749Z 09002KT 12/10 A2995 RMK A01 T01230103  RH  087%=      5-min Rain = 0
KWA1 221750Z 10002KT 12/10 A2995 RMK A01 T01230102  RH  087%=      5-min Rain = 0
KWA1 221751Z 09002KT 12/10 A2995 RMK A01 T01230103  RH  087%=      5-min Rain = 0
KWA1 221752Z 11002KT 12/10 A2995 RMK A01 T01240103  RH  087%=      5-min Rain = 0
KWA1 221753Z 10002KT 13/10 A2995 RMK A01 T01250104  RH  087%=      5-min Rain = 0
KWA1 221754Z 12002KT 13/10 A2995 RMK A01 T01250103  RH  086%=      5-min Rain = 0
KWA1 221755Z 11002KT 13/10 A2995 RMK A01 T01250103  RH  086%=      5-min Rain = 0
KWA1 221756Z 11002KT 13/10 A2995 RMK A01 T01260103  RH  086%=      5-min Rain = 0
KWA1 221757Z 10002KT 13/10 A2995 RMK A01 T01260103  RH  086%=      5-min Rain = 0
KWA1 221758Z 09002KT 13/10 A2995 RMK A01 T01260103  RH  086%=      5-min Rain = 0
KWA1 221759Z 09002KT 13/10 A2994 RMK A01 T01260103  RH  086%=      5-min Rain = 0
KWA1 221800Z 09001KT 13/11 A2994 RMK A01 T01270105  RH  086%=      5-min Rain = 0
KWA1 221801Z 08002KT 13/11 A2994 RMK A01 T01280105  RH  086%=      5-min Rain = 0
KWA1 221802Z 07002KT 13/10 A2994 RMK A01 T01280104  RH  086%=      5-min Rain = 0
KWA1 221803Z 10002KT 13/10 A2994 RMK A01 T01280104  RH  086%=      5-min Rain = 0
KWA1 221804Z 10004KT 13/11 A2994 RMK A01 T01290105  RH  086%=      5-min Rain = 0
KWA1 221805Z 09003KT 13/11 A2994 RMK A01 T01290105  RH  085%=      5-min Rain = 0
KWA1 221806Z 09003KT 13/10 A2994 RMK A01 T01290104  RH  085%=      5-min Rain = 0
KWA1 221807Z 09003KT 13/11 A2994 RMK A01 T01290105  RH  085%=      5-min Rain = 0
KWA1 221808Z 08003KT 13/11 A2994 RMK A01 T01290106  RH  085%=      5-min Rain = 0
KWA1 221809Z 08004KT 13/11 A2994 RMK A01 T01300105  RH  085%=      5-min Rain = 0
KWA1 221810Z 08003KT 13/11 A2993 RMK A01 T01300105  RH  085%=      5-min Rain = 0
KWA1 221811Z 10004KT 13/11 A2993 RMK A01 T01300106  RH  085%=      5-min Rain = 0
KWA1 221812Z 11003KT 13/11 A2993 RMK A01 T01300106  RH  085%=      5-min Rain = 0
KWA1 221813Z 10003KT 13/11 A2993 RMK A01 T01310106  RH  085%=      5-min Rain = 0
KWA1 221814Z 08004KT 13/11 A2993 RMK A01 T01310106  RH  085%=      5-min Rain = 0
KWA1 221815Z 08004KT 13/11 A2993 RMK A01 T01320106  RH  085%=      5-min Rain = 0
KWA1 221816Z 08003KT 13/11 A2993 RMK A01 T01320106  RH  084%=      5-min Rain = 0
KWA1 221817Z 06003KT 13/11 A2993 RMK A01 T01320106  RH  084%=      5-min Rain = 0
KWA1 221818Z 07003KT 13/11 A2992 RMK A01 T01320106  RH  085%=      5-min Rain = 0
KWA1 221819Z 11003KT 13/11 A2992 RMK A01 T01320107  RH  085%=      5-min Rain = 0
KWA1 221820Z 09003KT 13/11 A2992 RMK A01 T01320107  RH  085%=      5-min Rain = 0
KWA1 221821Z 08003KT 13/11 A2992 RMK A01 T01330107  RH  084%=      5-min Rain = 0
KWA1 221822Z 09002KT 13/11 A2992 RMK A01 T01330107  RH  084%=      5-min Rain = 0
KWA1 221823Z 11003KT 13/11 A2992 RMK A01 T01340107  RH  084%=      5-min Rain = 0
KWA1 221824Z 11003KT 13/11 A2992 RMK A01 T01340107  RH  084%=      5-min Rain = 0
KWA1 221825Z 11004KT 13/11 A2992 RMK A01 T01340107  RH  084%=      5-min Rain = 0
KWA1 221826Z 11003KT 13/11 A2992 RMK A01 T01340108  RH  084%=      5-min Rain = 0
KWA1 221827Z 11002KT 14/11 A2992 RMK A01 T01350109  RH  084%=      5-min Rain = 0
KWA1 221828Z 11001KT 14/11 A2992 RMK A01 T01350108  RH  084%=      5-min Rain = 0
KWA1 221829Z 08001KT 14/11 A2992 RMK A01 T01360108  RH  083%=      5-min Rain = 0
KWA1 221830Z 10004KT 14/11 A2992 RMK A01 T01370110  RH  084%=      5-min Rain = 0
KWA1 221831Z 11004KT 14/11 A2992 RMK A01 T01370109  RH  083%=      5-min Rain = 0
KWA1 221832Z 09004KT 14/11 A2992 RMK A01 T01370108  RH  083%=      5-min Rain = 0
KWA1 221833Z 10003KT 14/11 A2992 RMK A01 T01370108  RH  083%=      5-min Rain = 0
KWA1 221834Z 11004KT 14/11 A2992 RMK A01 T01380112  RH  084%=      5-min Rain = 0
KWA1 221835Z 13004KT 14/11 A2992 RMK A01 T01400112  RH  083%=      5-min Rain = 0
KWA1 221836Z 12005KT 14/11 A2992 RMK A01 T01410109  RH  081%=      5-min Rain = 0
KWA1 221837Z 12005KT 14/11 A2992 RMK A01 T01400110  RH  082%=      5-min Rain = 0
KWA1 221838Z 12004KT 14/11 A2992 RMK A01 T01400109  RH  081%=      5-min Rain = 0
KWA1 221839Z 12004KT 14/11 A2992 RMK A01 T01400110  RH  082%=      5-min Rain = 0
KWA1 221840Z 10004KT 14/11 A2992 RMK A01 T01400110  RH  082%=      5-min Rain = 0
KWA1 221841Z 10003KT 14/11 A2992 RMK A01 T01410110  RH  082%=      5-min Rain = 0
KWA1 221842Z 12005KT 14/11 A2992 RMK A01 T01410110  RH  082%=      5-min Rain = 0
KWA1 221843Z 11006KT 14/11 A2992 RMK A01 T01420111  RH  081%=      5-min Rain = 0
KWA1 221844Z 10005KT 14/11 A2992 RMK A01 T01420111  RH  081%=      5-min Rain = 0
KWA1 221845Z 11004KT 14/11 A2992 RMK A01 T01420111  RH  081%=      5-min Rain = 0
KWA1 221846Z 12005KT 14/11 A2992 RMK A01 T01430112  RH  081%=      5-min Rain = 0
KWA1 221847Z 10005KT 14/11 A2992 RMK A01 T01440111  RH  081%=      5-min Rain = 0
KWA1 221848Z 10006KT 14/11 A2992 RMK A01 T01440112  RH  081%=      5-min Rain = 0
KWA1 221849Z 12005KT 15/11 A2992 RMK A01 T01450113  RH  081%=      5-min Rain = 0
KWA1 221850Z 13004KT 15/11 A2992 RMK A01 T01470112  RH  080%=      5-min Rain = 0
KWA1 221851Z 13002KT 15/11 A2992 RMK A01 T01460112  RH  080%=      5-min Rain = 0
KWA1 221852Z 13004KT 15/11 A2992 RMK A01 T01460112  RH  080%=      5-min Rain = 0
KWA1 221853Z 13006KT 15/11 A2992 RMK A01 T01470114  RH  080%=      5-min Rain = 0
KWA1 221854Z 13004KT 15/11 A2992 RMK A01 T01490113  RH  079%=      5-min Rain = 0
KWA1 221855Z 11004KT 15/11 A2992 RMK A01 T01500113  RH  079%=      5-min Rain = 0
KWA1 221856Z 11006KT 15/11 A2992 RMK A01 T01490112  RH  078%=      5-min Rain = 0
KWA1 221857Z 13004KT 15/11 A2992 RMK A01 T01490112  RH  078%=      5-min Rain = 0
KWA1 221858Z 13004KT 15/11 A2992 RMK A01 T01480111  RH  079%=      5-min Rain = 0
KWA1 221859Z 12003KT 15/11 A2992 RMK A01 T01480112  RH  079%=      5-min Rain = 0
KWA1 221900Z 12003KT 15/11 A2992 RMK A01 T01480112  RH  079%=      5-min Rain = 0
KWA1 221901Z 15006KT 15/11 A2992 RMK A01 T01500113  RH  079%=      5-min Rain = 0
KWA1 221902Z 17009KT 15/11 A2991 RMK A01 T01520113  RH  078%=      5-min Rain = 0
KWA1 221903Z 18007KT 15/11 A2991 RMK A01 T01530112  RH  077%=      5-min Rain = 0
KWA1 221904Z 16008KT 15/11 A2991 RMK A01 T01530113  RH  077%=      5-min Rain = 0
KWA1 221905Z 15007KT 16/11 A2991 RMK A01 T01550113  RH  076%=      5-min Rain = 0
KWA1 221906Z 16009KT 16/11 A2991 RMK A01 T01570114  RH  076%=      5-min Rain = 0
KWA1 221907Z 17009KT 16/11 A2991 RMK A01 T01590114  RH  075%=      5-min Rain = 0
KWA1 221908Z 19007KT 16/11 A2991 RMK A01 T01600113  RH  074%=      5-min Rain = 0
KWA1 221909Z 20008KT 16/11 A2991 RMK A01 T01610114  RH  074%=      5-min Rain = 0
KWA1 221910Z 21008KT 16/11 A2991 RMK A01 T01610113  RH  073%=      5-min Rain = 0
KWA1 221911Z 21008KT 16/11 A2991 RMK A01 T01610114  RH  073%=      5-min Rain = 0
KWA1 221912Z 21008KT 16/11 A299 RMK A01 T01620114  RH  073%=      5-min Rain = 0
KWA1 221913Z 21006KT 16/11 A299 RMK A01 T01620112  RH  073%=      5-min Rain = 0
KWA1 221914Z 19008KT 16/11 A299 RMK A01 T01610112  RH  073%=      5-min Rain = 0
KWA1 221915Z 18008KT 16/11 A299 RMK A01 T01600112  RH  073%=      5-min Rain = 0
KWA1 221916Z 16006KT 16/11 A299 RMK A01 T01610112  RH  073%=      5-min Rain = 0
KWA1 221917Z 18005KT 16/11 A299 RMK A01 T01620113  RH  072%=      5-min Rain = 0
KWA1 221918Z 17009KT 16/12 A299 RMK A01 T01640116  RH  073%=      5-min Rain = 0
KWA1 221919Z 17010KT 17/11 A299 RMK A01 T01660112  RH  070%=      5-min Rain = 0
KWA1 221920Z 17008KT 17/11 A299 RMK A01 T01670113  RH  071%=      5-min Rain = 0
KWA1 221921Z 16006KT 17/11 A299 RMK A01 T01680112  RH  070%=      5-min Rain = 0
KWA1 221922Z 17006KT 17/11 A299 RMK A01 T01680112  RH  070%=      5-min Rain = 0
KWA1 221923Z 18007KT 17/11 A299 RMK A01 T01690112  RH  069%=      5-min Rain = 0
KWA1 221924Z 17009KT 17/11 A299 RMK A01 T01700110  RH  068%=      5-min Rain = 0
KWA1 221925Z 16009KT 17/11 A299 RMK A01 T01720113  RH  068%=      5-min Rain = 0
KWA1 221926Z 16009KT 18/11 A299 RMK A01 T01770114  RH  066%=      5-min Rain = 0
KWA1 221927Z 17008KT 18/11 A299 RMK A01 T01770112  RH  065%=      5-min Rain = 0
KWA1 221928Z 16005KT 18/11 A299 RMK A01 T01750108  RH  065%=      5-min Rain = 0
KWA1 221929Z 16007KT 17/11 A2989 RMK A01 T01720108  RH  066%=      5-min Rain = 0
KWA1 221930Z 15005KT 17/11 A2989 RMK A01 T01720111  RH  067%=      5-min Rain = 0
KWA1 221931Z 13004KT 17/11 A2989 RMK A01 T01710107  RH  066%=      5-min Rain = 0
KWA1 221932Z 14005KT 17/11 A2989 RMK A01 T01690110  RH  068%=      5-min Rain = 0
KWA1 221933Z 16005KT 17/11 A2989 RMK A01 T01690109  RH  068%=      5-min Rain = 0
KWA1 221934Z 16008KT 17/11 A2989 RMK A01 T01710114  RH  069%=      5-min Rain = 0
KWA1 221935Z 19009KT 18/12 A2989 RMK A01 T01770117  RH  068%=      5-min Rain = 0
KWA1 221936Z 18008KT 18/11 A2989 RMK A01 T01770112  RH  066%=      5-min Rain = 0
KWA1 221937Z 17006KT 18/11 A2989 RMK A01 T01750112  RH  066%=      5-min Rain = 0
KWA1 221938Z 17007KT 17/11 A2988 RMK A01 T01740110  RH  066%=      5-min Rain = 0
KWA1 221939Z 15006KT 17/11 A2988 RMK A01 T01740111  RH  066%=      5-min Rain = 0
KWA1 221940Z 15007KT 18/11 A2988 RMK A01 T01750113  RH  067%=      5-min Rain = 0
KWA1 221941Z 14007KT 18/11 A2988 RMK A01 T01750111  RH  066%=      5-min Rain = 0
KWA1 221942Z 13009KT 17/11 A2988 RMK A01 T01730109  RH  066%=      5-min Rain = 0
KWA1 221943Z 14006KT 17/11 A2988 RMK A01 T01710107  RH  066%=      5-min Rain = 0
KWA1 221944Z 15003KT 17/11 A2988 RMK A01 T01710110  RH  068%=      5-min Rain = 0
KWA1 221945Z 15006KT 17/11 A2988 RMK A01 T01710109  RH  067%=      5-min Rain = 0
KWA1 221946Z 17007KT 17/11 A2988 RMK A01 T01720109  RH  066%=      5-min Rain = 0
KWA1 221947Z 16008KT 17/11 A2988 RMK A01 T01720108  RH  066%=      5-min Rain = 0
KWA1 221948Z 15006KT 17/11 A2988 RMK A01 T01720106  RH  065%=      5-min Rain = 0
KWA1 221949Z 17007KT 17/11 A2988 RMK A01 T01730110  RH  066%=      5-min Rain = 0
KWA1 221950Z 15007KT 18/11 A2988 RMK A01 T01750112  RH  066%=      5-min Rain = 0
KWA1 221951Z 14006KT 18/11 A2988 RMK A01 T01790112  RH  065%=      5-min Rain = 0
KWA1 221952Z 15007KT 18/11 A2988 RMK A01 T01790112  RH  065%=      5-min Rain = 0
KWA1 221953Z 16005KT 18/11 A2988 RMK A01 T01780110  RH  064%=      5-min Rain = 0
KWA1 221954Z 17004KT 18/12 A2988 RMK A01 T01790115  RH  066%=      5-min Rain = 0
KWA1 221955Z 20007KT 18/11 A2988 RMK A01 T01820114  RH  065%=      5-min Rain = 0
KWA1 221956Z 18006KT 18/11 A2988 RMK A01 T01820113  RH  064%=      5-min Rain = 0
KWA1 221957Z 18008KT 18/11 A2988 RMK A01 T01830114  RH  064%=      5-min Rain = 0
KWA1 221958Z 18007KT 18/12 A2988 RMK A01 T01840116  RH  064%=      5-min Rain = 0
KWA1 221959Z 17006KT 19/11 A2988 RMK A01 T01850113  RH  063%=      5-min Rain = 0
KWA1 222000Z 15007KT 18/11 A2988 RMK A01 T01820112  RH  063%=      5-min Rain = 0
KWA1 222001Z 13006KT 18/11 A2987 RMK A01 T01810109  RH  063%=      5-min Rain = 0
KWA1 222002Z 12008KT 18/11 A2987 RMK A01 T01770108  RH  064%=      5-min Rain = 0
KWA1 222003Z 12006KT 18/11 A2987 RMK A01 T01760110  RH  065%=      5-min Rain = 0
KWA1 222004Z 12005KT 18/11 A2987 RMK A01 T01780113  RH  066%=      5-min Rain = 0
KWA1 222005Z 16005KT 18/11 A2987 RMK A01 T01820114  RH  064%=      5-min Rain = 0
KWA1 222006Z 16007KT 18/11 A2987 RMK A01 T01830112  RH  063%=      5-min Rain = 0
KWA1 222007Z 18004KT 18/11 A2986 RMK A01 T01820108  RH  062%=      5-min Rain = 0
KWA1 222008Z 15008KT 18/11 A2986 RMK A01 T01800111  RH  064%=      5-min Rain = 0
KWA1 222009Z 14008KT 18/11 A2986 RMK A01 T01820111  RH  063%=      5-min Rain = 0
KWA1 222010Z 12006KT 18/11 A2986 RMK A01 T01820110  RH  063%=      5-min Rain = 0
KWA1 222011Z 11005KT 18/11 A2986 RMK A01 T01810111  RH  064%=      5-min Rain = 0
KWA1 222012Z 11004KT 18/11 A2986 RMK A01 T01790107  RH  063%=      5-min Rain = 0
KWA1 222013Z 08004KT 18/11 A2986 RMK A01 T01770109  RH  064%=      5-min Rain = 0
KWA1 222014Z 14004KT 18/11 A2986 RMK A01 T01790111  RH  065%=      5-min Rain = 0
KWA1 222015Z 14005KT 18/11 A2986 RMK A01 T01800107  RH  063%=      5-min Rain = 0
KWA1 222016Z 13005KT 18/11 A2986 RMK A01 T01790106  RH  062%=      5-min Rain = 0
KWA1 222017Z 13007KT 18/11 A2986 RMK A01 T01780108  RH  063%=      5-min Rain = 0
KWA1 222018Z 14009KT 18/11 A2986 RMK A01 T01790109  RH  064%=      5-min Rain = 0
KWA1 222019Z 12010KT 18/11 A2986 RMK A01 T01830109  RH  062%=      5-min Rain = 0
KWA1 222020Z 11008KT 18/11 A2986 RMK A01 T01830108  RH  062%=      5-min Rain = 0
KWA1 222021Z 12008KT 18/11 A2986 RMK A01 T01810108  RH  062%=      5-min Rain = 0
KWA1 222022Z 12008KT 18/11 A2986 RMK A01 T01810108  RH  062%=      5-min Rain = 0
KWA1 222023Z 13010KT 18/11 A2986 RMK A01 T01820109  RH  062%=      5-min Rain = 0
KWA1 222024Z 14009KT 19/11 A2986 RMK A01 T01860110  RH  061%=      5-min Rain = 0
KWA1 222025Z 14007KT 19/11 A2985 RMK A01 T01870109  RH  060%=      5-min Rain = 0
KWA1 222026Z 13008KT 19/11 A2985 RMK A01 T01860106  RH  060%=      5-min Rain = 0
KWA1 222027Z 13007KT 18/10 A2985 RMK A01 T01840104  RH  060%=      5-min Rain = 0
KWA1 222028Z 14004KT 18/10 A2985 RMK A01 T01810102  RH  060%=      5-min Rain = 0
KWA1 222029Z 16002KT 18/10 A2985 RMK A01 T01800103  RH  061%=      5-min Rain = 0
KWA1 222030Z 14004KT 18/11 A2985 RMK A01 T01820108  RH  062%=      5-min Rain = 0
KWA1 222031Z 13004KT 18/10 A2985 RMK A01 T01840104  RH  060%=      5-min Rain = 0
KWA1 222032Z 13003KT 18/10 A2985 RMK A01 T01820104  RH  060%=      5-min Rain = 0
KWA1 222033Z 15006KT 18/11 A2985 RMK A01 T01830106  RH  061%=      5-min Rain = 0
KWA1 222034Z 17009KT 19/11 A2985 RMK A01 T01870108  RH  060%=      5-min Rain = 0
KWA1 222035Z 16007KT 19/11 A2985 RMK A01 T01880107  RH  059%=      5-min Rain = 0
KWA1 222036Z 18007KT 19/11 A2985 RMK A01 T01890108  RH  059%=      5-min Rain = 0
KWA1 222037Z 16007KT 19/11 A2985 RMK A01 T01900107  RH  059%=      5-min Rain = 0
KWA1 222038Z 14007KT 19/10 A2985 RMK A01 T01900103  RH  057%=      5-min Rain = 0
KWA1 222039Z 15006KT 19/10 A2985 RMK A01 T01870102  RH  058%=      5-min Rain = 0
KWA1 222040Z 17004KT 19/10 A2985 RMK A01 T01870103  RH  058%=      5-min Rain = 0
KWA1 222041Z 21005KT 19/10 A2985 RMK A01 T01880104  RH  058%=      5-min Rain = 0
KWA1 222042Z 17003KT 19/10 A2985 RMK A01 T01880102  RH  057%=      5-min Rain = 0
KWA1 222043Z 14004KT 19/10 A2985 RMK A01 T01880103  RH  058%=      5-min Rain = 0
KWA1 222044Z 15005KT 19/10 A2984 RMK A01 T01880103  RH  058%=      5-min Rain = 0
KWA1 222045Z 17005KT 19/10 A2984 RMK A01 T01910104  RH  057%=      5-min Rain = 0
KWA1 222046Z 15009KT 19/11 A2984 RMK A01 T01920105  RH  057%=      5-min Rain = 0
KWA1 222047Z 15010KT 19/11 A2984 RMK A01 T01940111  RH  058%=      5-min Rain = 0
KWA1 222048Z 15009KT 20/11 A2984 RMK A01 T01980108  RH  056%=      5-min Rain = 0
KWA1 222049Z 14009KT 20/11 A2984 RMK A01 T01970106  RH  056%=      5-min Rain = 0
KWA1 222050Z 14008KT 19/11 A2984 RMK A01 T01940105  RH  056%=      5-min Rain = 0
KWA1 222051Z 15006KT 19/11 A2984 RMK A01 T01930105  RH  056%=      5-min Rain = 0
KWA1 222052Z 14008KT 19/10 A2984 RMK A01 T01920102  RH  056%=      5-min Rain = 0
KWA1 222053Z 14007KT 19/10 A2984 RMK A01 T01900103  RH  057%=      5-min Rain = 0
KWA1 222054Z 14005KT 19/11 A2984 RMK A01 T01910105  RH  057%=      5-min Rain = 0
KWA1 222055Z 12005KT 19/10 A2984 RMK A01 T01930103  RH  056%=      5-min Rain = 0
KWA1 222056Z 12004KT 19/10 A2984 RMK A01 T01920103  RH  056%=      5-min Rain = 0
KWA1 222057Z 12005G10KT 19/10 A2984 RMK A01 T01900101  RH  056%=      5-min Rain = 0
KWA1 222058Z 15008KT 19/11 A2984 RMK A01 T01930106  RH  057%=      5-min Rain = 0
KWA1 222059Z 15012KT 20/11 A2984 RMK A01 T01990109  RH  056%=      5-min Rain = 0
KWA1 222100Z 15010KT 20/11 A2984 RMK A01 T02020106  RH  054%=      5-min Rain = 0
KWA1 222101Z 15008KT 20/10 A2983 RMK A01 T02000103  RH  054%=      5-min Rain = 0
KWA1 222102Z 15008KT 20/10 A2983 RMK A01 T01980101  RH  054%=      5-min Rain = 0
KWA1 222103Z 15007KT 20/10 A2983 RMK A01 T01960099  RH  053%=      5-min Rain = 0
KWA1 222104Z 14006KT 20/10 A2983 RMK A01 T01960099  RH  054%=      5-min Rain = 0
KWA1 222105Z 16008KT 20/10 A2983 RMK A01 T01950100  RH  054%=      5-min Rain = 0
KWA1 222106Z 17008KT 20/10 A2983 RMK A01 T01960098  RH  053%=      5-min Rain = 0
KWA1 222107Z 14007KT 20/10 A2983 RMK A01 T01960100  RH  054%=      5-min Rain = 0
KWA1 222108Z 15006KT 20/10 A2983 RMK A01 T01970099  RH  053%=      5-min Rain = 0
KWA1 222109Z 17004KT 20/10 A2983 RMK A01 T01980101  RH  053%=      5-min Rain = 0
KWA1 222110Z 19005KT 20/10 A2983 RMK A01 T01990100  RH  053%=      5-min Rain = 0
KWA1 222111Z 16004KT 20/10 A2983 RMK A01 T01990098  RH  052%=      5-min Rain = 0
KWA1 222112Z 16009KT 20/10 A2983 RMK A01 T01970102  RH  054%=      5-min Rain = 0
KWA1 222113Z 15008KT 20/10 A2983 RMK A01 T01980103  RH  054%=      5-min Rain = 0
KWA1 222114Z 16007KT 20/10 A2983 RMK A01 T01980104  RH  055%=      5-min Rain = 0
KWA1 222115Z 20009KT 20/10 A2983 RMK A01 T01980102  RH  054%=      5-min Rain = 0
KWA1 222116Z 19008KT 20/10 A2983 RMK A01 T02000100  RH  052%=      5-min Rain = 0
KWA1 222117Z 19009KT 20/11 A2983 RMK A01 T02030105  RH  053%=      5-min Rain = 0
KWA1 222118Z 19007KT 21/10 A2983 RMK A01 T02050096  RH  050%=      5-min Rain = 0
KWA1 222119Z 19006KT 20/10 A2983 RMK A01 T02010095  RH  050%=      5-min Rain = 0
KWA1 222120Z 16003KT 20/09 A2983 RMK A01 T02000093  RH  050%=      5-min Rain = 0
KWA1 222121Z 15002KT 20/10 A2983 RMK A01 T01980096  RH  052%=      5-min Rain = 0
KWA1 222122Z 10003KT 20/10 A2983 RMK A01 T02000099  RH  052%=      5-min Rain = 0
KWA1 222123Z 10004KT 20/10 A2983 RMK A01 T02010099  RH  052%=      5-min Rain = 0
KWA1 222124Z 13002KT 20/10 A2982 RMK A01 T02010099  RH  052%=      5-min Rain = 0
KWA1 222125Z 16003KT 20/10 A2982 RMK A01 T02010099  RH  052%=      5-min Rain = 0
KWA1 222126Z 14008KT 20/10 A2982 RMK A01 T02010099  RH  052%=      5-min Rain = 0
KWA1 222127Z 16007KT 20/10 A2982 RMK A01 T02020101  RH  052%=      5-min Rain = 0
KWA1 222128Z 16006KT 20/10 A2982 RMK A01 T02010100  RH  052%=      5-min Rain = 0
KWA1 222129Z 13003KT 20/10 A2982 RMK A01 T02010102  RH  053%=      5-min Rain = 0
KWA1 222130Z 13007KT 20/10 A2982 RMK A01 T02010102  RH  053%=      5-min Rain = 0
KWA1 222131Z 13004KT 20/10 A2982 RMK A01 T02010102  RH  053%=      5-min Rain = 0
KWA1 222132Z 12005KT 20/10 A2982 RMK A01 T02020104  RH  053%=      5-min Rain = 0
KWA1 222133Z 11007KT 20/10 A2982 RMK A01 T02030102  RH  052%=      5-min Rain = 0
KWA1 222134Z 13009KT 20/10 A2982 RMK A01 T02030102  RH  052%=      5-min Rain = 0
KWA1 222135Z 13007KT 20/10 A2982 RMK A01 T02030099  RH  051%=      5-min Rain = 0
KWA1 222136Z 14006KT 20/10 A2982 RMK A01 T02000099  RH  052%=      5-min Rain = 0
KWA1 222137Z 15006KT 20/10 A2982 RMK A01 T01990100  RH  053%=      5-min Rain = 0
KWA1 222138Z 14005KT 20/10 A2982 RMK A01 T02010100  RH  052%=      5-min Rain = 0
KWA1 222139Z 12002KT 20/10 A2982 RMK A01 T02020099  RH  051%=      5-min Rain = 0
KWA1 222140Z 14004KT 20/10 A2982 RMK A01 T02030098  RH  051%=      5-min Rain = 0
KWA1 222141Z 16003KT 20/10 A2982 RMK A01 T02020099  RH  051%=      5-min Rain = 0
KWA1 222142Z 14004KT 20/10 A2982 RMK A01 T02020099  RH  051%=      5-min Rain = 0
KWA1 222143Z 17005KT 20/10 A2982 RMK A01 T02020097  RH  051%=      5-min Rain = 0
KWA1 222144Z 15008KT 20/09 A2982 RMK A01 T02030094  RH  049%=      5-min Rain = 0
KWA1 222145Z 15009KT 21/10 A2982 RMK A01 T02060095  RH  049%=      5-min Rain = 0
KWA1 222146Z 15007KT 21/10 A2981 RMK A01 T02090095  RH  048%=      5-min Rain = 0
KWA1 222147Z 15006KT 21/09 A2981 RMK A01 T02100092  RH  047%=      5-min Rain = 0
KWA1 222148Z 13006KT 21/09 A2981 RMK A01 T02080091  RH  047%=      5-min Rain = 0
KWA1 222149Z 14006KT 21/09 A2981 RMK A01 T02060088  RH  047%=      5-min Rain = 0
KWA1 222150Z 13005KT 21/09 A2981 RMK A01 T02050088  RH  047%=      5-min Rain = 0
KWA1 222151Z 12006KT 21/09 A2981 RMK A01 T02050088  RH  047%=      5-min Rain = 0
KWA1 222152Z 12006KT 21/09 A2981 RMK A01 T02050087  RH  047%=      5-min Rain = 0
KWA1 222153Z 13006KT 21/09 A2981 RMK A01 T02050090  RH  047%=      5-min Rain = 0
KWA1 222154Z 15006KT 20/09 A2981 RMK A01 T02040090  RH  048%=      5-min Rain = 0
KWA1 222155Z 18006KT 21/09 A2981 RMK A01 T02050089  RH  047%=      5-min Rain = 0
KWA1 222156Z 16004KT 21/09 A2981 RMK A01 T02060090  RH  047%=      5-min Rain = 0
KWA1 222157Z 14006KT 21/09 A2981 RMK A01 T02070092  RH  048%=      5-min Rain = 0
KWA1 222158Z 14007KT 21/09 A2981 RMK A01 T02080093  RH  047%=      5-min Rain = 0
KWA1 222159Z 17007KT 21/09 A2981 RMK A01 T02090093  RH  047%=      5-min Rain = 0
KWA1 222200Z 17005KT 21/09 A2981 RMK A01 T02090093  RH  048%=      5-min Rain = 0
KWA1 222201Z 17005KT 21/09 A2981 RMK A01 T02080094  RH  048%=      5-min Rain = 0
KWA1 222202Z 15007KT 21/09 A2981 RMK A01 T02070093  RH  048%=      5-min Rain = 0
KWA1 222203Z 16009KT 21/09 A2981 RMK A01 T02090092  RH  047%=      5-min Rain = 0
KWA1 222204Z 16010KT 21/09 A2981 RMK A01 T02100089  RH  046%=      5-min Rain = 0
KWA1 222205Z 16008KT 21/09 A2981 RMK A01 T02100092  RH  047%=      5-min Rain = 0
KWA1 222206Z 14008KT 21/09 A2981 RMK A01 T02100092  RH  047%=      5-min Rain = 0
KWA1 222207Z 15008KT 21/09 A2981 RMK A01 T02100094  RH  047%=      5-min Rain = 0
KWA1 222208Z 16009KT 21/10 A2981 RMK A01 T02100096  RH  048%=      5-min Rain = 0
KWA1 222209Z 14008KT 21/10 A2981 RMK A01 T02110095  RH  048%=      5-min Rain = 0
KWA1 222210Z 12008KT 21/09 A2981 RMK A01 T02110094  RH  047%=      5-min Rain = 0
KWA1 222211Z 15008KT 21/09 A2981 RMK A01 T02100093  RH  047%=      5-min Rain = 0
KWA1 222212Z 15006KT 21/09 A2981 RMK A01 T02100094  RH  047%=      5-min Rain = 0
KWA1 222213Z 10007KT 21/10 A2981 RMK A01 T02110095  RH  048%=      5-min Rain = 0
KWA1 222214Z 10007KT 21/10 A2981 RMK A01 T02110098  RH  048%=      5-min Rain = 0
KWA1 222215Z 10007KT 21/10 A2981 RMK A01 T02100097  RH  048%=      5-min Rain = 0
KWA1 222216Z 11005KT 21/09 A2981 RMK A01 T02090093  RH  047%=      5-min Rain = 0
KWA1 222217Z 13004KT 21/09 A2981 RMK A01 T02060093  RH  048%=      5-min Rain = 0
KWA1 222218Z 15007KT 21/09 A2981 RMK A01 T02070093  RH  048%=      5-min Rain = 0
KWA1 222219Z 16008KT 21/09 A2981 RMK A01 T02090086  RH  045%=      5-min Rain = 0
KWA1 222220Z 14007KT 21/09 A2981 RMK A01 T02090085  RH  045%=      5-min Rain = 0
KWA1 222221Z 14006KT 21/09 A2981 RMK A01 T02090085  RH  045%=      5-min Rain = 0
KWA1 222222Z 14008KT 21/09 A2981 RMK A01 T02090093  RH  047%=      5-min Rain = 0
KWA1 222223Z 12007KT 21/09 A2981 RMK A01 T02100094  RH  047%=      5-min Rain = 0
KWA1 222224Z 10008KT 21/10 A2981 RMK A01 T02110098  RH  048%=      5-min Rain = 0
KWA1 222225Z 11009KT 21/10 A298 RMK A01 T02100100  RH  049%=      5-min Rain = 0
KWA1 222226Z 13010KT 21/10 A298 RMK A01 T02100098  RH  049%=      5-min Rain = 0
KWA1 222227Z 14009KT 21/10 A298 RMK A01 T02100096  RH  048%=      5-min Rain = 0
KWA1 222228Z 13009KT 21/10 A298 RMK A01 T02090095  RH  048%=      5-min Rain = 0
KWA1 222229Z 12011KT 21/09 A298 RMK A01 T02070094  RH  048%=      5-min Rain = 0
KWA1 222230Z 11008KT 21/09 A298 RMK A01 T02070093  RH  048%=      5-min Rain = 0
KWA1 222231Z 09005KT 21/09 A298 RMK A01 T02050094  RH  049%=      5-min Rain = 0
KWA1 222232Z 11008KT 21/10 A298 RMK A01 T02050096  RH  049%=      5-min Rain = 0
KWA1 222233Z 13012KT 21/10 A298 RMK A01 T02080096  RH  049%=      5-min Rain = 0
KWA1 222234Z 13012KT 21/10 A298 RMK A01 T02090095  RH  048%=      5-min Rain = 0
KWA1 222235Z 13011KT 21/09 A298 RMK A01 T02080094  RH  048%=      5-min Rain = 0
KWA1 222236Z 12010KT 21/09 A298 RMK A01 T02060093  RH  048%=      5-min Rain = 0
KWA1 222237Z 12010KT 21/10 A298 RMK A01 T02060095  RH  049%=      5-min Rain = 0
KWA1 222238Z 10011KT 21/09 A298 RMK A01 T02070094  RH  048%=      5-min Rain = 0
KWA1 222239Z 10009KT 21/09 A298 RMK A01 T02070094  RH  048%=      5-min Rain = 0
KWA1 222240Z 11007KT 21/10 A298 RMK A01 T02070095  RH  049%=      5-min Rain = 0
KWA1 222241Z 10007KT 21/10 A298 RMK A01 T02070095  RH  049%=      5-min Rain = 0
KWA1 222242Z 10010KT 21/10 A298 RMK A01 T02080095  RH  048%=      5-min Rain = 0
KWA1 222243Z 10008KT 21/09 A298 RMK A01 T02080093  RH  048%=      5-min Rain = 0
KWA1 222244Z 12008KT 21/10 A298 RMK A01 T02070095  RH  048%=      5-min Rain = 0
KWA1 222245Z 12009KT 21/09 A298 RMK A01 T02080093  RH  048%=      5-min Rain = 0
KWA1 222246Z 12008KT 21/09 A298 RMK A01 T02090094  RH  048%=      5-min Rain = 0
KWA1 222247Z 12007KT 21/09 A298 RMK A01 T02080093  RH  048%=      5-min Rain = 0
KWA1 222248Z 11006KT 21/09 A298 RMK A01 T02070092  RH  048%=      5-min Rain = 0
KWA1 222249Z 13008KT 21/09 A298 RMK A01 T02080093  RH  048%=      5-min Rain = 0
KWA1 222250Z 13010KT 21/09 A298 RMK A01 T02090094  RH  048%=      5-min Rain = 0
KWA1 222251Z 13010KT 21/09 A298 RMK A01 T02100092  RH  047%=      5-min Rain = 0
KWA1 222252Z 13010KT 21/09 A298 RMK A01 T02100092  RH  047%=      5-min Rain = 0
KWA1 222253Z 12010KT 21/09 A298 RMK A01 T02090093  RH  047%=      5-min Rain = 0
KWA1 222254Z 11010KT 21/09 A298 RMK A01 T02080092  RH  047%=      5-min Rain = 0
KWA1 222255Z 11009KT 21/09 A2979 RMK A01 T02070093  RH  048%=      5-min Rain = 0
KWA1 222256Z 11011KT 21/09 A2979 RMK A01 T02070094  RH  048%=      5-min Rain = 0
KWA1 222257Z 11010KT 21/10 A2979 RMK A01 T02080095  RH  048%=      5-min Rain = 0
KWA1 222258Z 12012KT 21/09 A2979 RMK A01 T02090094  RH  048%=      5-min Rain = 0
KWA1 222259Z 13013KT 21/09 A2979 RMK A01 T02090092  RH  047%=      5-min Rain = 0
KWA1 222300Z 13013KT 21/09 A2979 RMK A01 T02090090  RH  047%=      5-min Rain = 0
KWA1 222301Z 13010KT 21/09 A2979 RMK A01 T02080089  RH  047%=      5-min Rain = 0
KWA1 222302Z 12009KT 21/09 A2979 RMK A01 T02080090  RH  047%=      5-min Rain = 0
KWA1 222303Z 13009KT 21/09 A2979 RMK A01 T02070091  RH  047%=      5-min Rain = 0
KWA1 222304Z 12010KT 21/09 A2979 RMK A01 T02080093  RH  048%=      5-min Rain = 0
KWA1 222305Z 13009KT 21/09 A2979 RMK A01 T02080090  RH  047%=      5-min Rain = 0
KWA1 222306Z 13009KT 21/09 A2979 RMK A01 T02080091  RH  047%=      5-min Rain = 0
KWA1 222307Z 12009KT 21/09 A2979 RMK A01 T02080092  RH  047%=      5-min Rain = 0
KWA1 222308Z 11009KT 21/10 A2979 RMK A01 T02080095  RH  048%=      5-min Rain = 0
KWA1 222309Z 11008KT 21/10 A2979 RMK A01 T02080097  RH  049%=      5-min Rain = 0
KWA1 222310Z 10010KT 21/10 A2979 RMK A01 T02080097  RH  049%=      5-min Rain = 0
KWA1 222311Z 11012KT 21/10 A2979 RMK A01 T02080097  RH  049%=      5-min Rain = 0
KWA1 222312Z 11012KT 21/09 A2979 RMK A01 T02080094  RH  048%=      5-min Rain = 0
KWA1 222313Z 10011KT 21/09 A2979 RMK A01 T02070094  RH  048%=      5-min Rain = 0
KWA1 222314Z 11010KT 21/10 A2979 RMK A01 T02060095  RH  049%=      5-min Rain = 0
KWA1 222315Z 11010KT 21/09 A2979 RMK A01 T02060094  RH  048%=      5-min Rain = 0
KWA1 222316Z 10009KT 21/10 A2979 RMK A01 T02060096  RH  049%=      5-min Rain = 0
KWA1 222317Z 12011KT 21/10 A2979 RMK A01 T02070095  RH  049%=      5-min Rain = 0
KWA1 222318Z 12010KT 21/09 A2979 RMK A01 T02070092  RH  048%=      5-min Rain = 0
KWA1 222319Z 12010KT 21/09 A2979 RMK A01 T02070093  RH  048%=      5-min Rain = 0
KWA1 222320Z 11011KT 21/09 A2979 RMK A01 T02070093  RH  048%=      5-min Rain = 0
KWA1 222321Z 13010KT 21/09 A2979 RMK A01 T02070092  RH  048%=      5-min Rain = 0
KWA1 222322Z 11008KT 21/09 A2979 RMK A01 T02060093  RH  048%=      5-min Rain = 0
KWA1 222323Z 11009KT 21/09 A2979 RMK A01 T02050093  RH  049%=      5-min Rain = 0
KWA1 222324Z 12010KT 21/09 A2979 RMK A01 T02060090  RH  047%=      5-min Rain = 0
KWA1 222325Z 12010KT 21/09 A2979 RMK A01 T02060091  RH  048%=      5-min Rain = 0
KWA1 222326Z 10009KT 21/09 A2979 RMK A01 T02060090  RH  047%=      5-min Rain = 0
KWA1 222327Z 11011KT 21/09 A2979 RMK A01 T02060089  RH  047%=      5-min Rain = 0
KWA1 222328Z 12012KT 21/09 A2979 RMK A01 T02060087  RH  046%=      5-min Rain = 0
KWA1 222329Z 12013KT 21/09 A2979 RMK A01 T02060085  RH  046%=      5-min Rain = 0
KWA1 222330Z 12011KT 21/09 A2979 RMK A01 T02060087  RH  046%=      5-min Rain = 0
KWA1 222331Z 12012KT 21/09 A2979 RMK A01 T02060089  RH  047%=      5-min Rain = 0
KWA1 222332Z 12012KT 21/09 A2979 RMK A01 T02060088  RH  047%=      5-min Rain = 0
KWA1 222333Z 12010KT 21/09 A2979 RMK A01 T02050090  RH  047%=      5-min Rain = 0
KWA1 222334Z 12013KT 21/09 A2979 RMK A01 T02050090  RH  047%=      5-min Rain = 0
KWA1 222335Z 12012KT 21/09 A2979 RMK A01 T02050089  RH  047%=      5-min Rain = 0
KWA1 222336Z 11011KT 21/09 A2979 RMK A01 T02050089  RH  048%=      5-min Rain = 0
KWA1 222337Z 11010KT 20/09 A2979 RMK A01 T02040089  RH  047%=      5-min Rain = 0
KWA1 222338Z 12010KT 20/09 A2979 RMK A01 T02040089  RH  047%=      5-min Rain = 0
KWA1 222339Z 12012KT 20/09 A2979 RMK A01 T02040088  RH  047%=      5-min Rain = 0
KWA1 222340Z 12010KT 20/09 A2979 RMK A01 T02030088  RH  047%=      5-min Rain = 0
KWA1 222341Z 12012KT 20/09 A2979 RMK A01 T02030088  RH  047%=      5-min Rain = 0
KWA1 222342Z 14012KT 20/09 A2979 RMK A01 T02040088  RH  047%=      5-min Rain = 0
KWA1 222343Z 14011KT 20/09 A2979 RMK A01 T02030087  RH  047%=      5-min Rain = 0
KWA1 222344Z 13010KT 20/09 A2979 RMK A01 T02030087  RH  047%=      5-min Rain = 0
KWA1 222345Z 13011KT 20/09 A2979 RMK A01 T02030088  RH  047%=      5-min Rain = 0
KWA1 222346Z 13010KT 20/09 A2979 RMK A01 T02030088  RH  048%=      5-min Rain = 0
KWA1 222347Z 13011KT 20/09 A2979 RMK A01 T02020088  RH  048%=      5-min Rain = 0
KWA1 222348Z 13010KT 20/09 A2979 RMK A01 T02030088  RH  048%=      5-min Rain = 0
KWA1 222349Z 13011KT 20/09 A2979 RMK A01 T02020088  RH  048%=      5-min Rain = 0
KWA1 222350Z 13011KT 20/09 A2979 RMK A01 T02020087  RH  048%=      5-min Rain = 0
KWA1 222351Z 13012KT 20/09 A2979 RMK A01 T02020088  RH  048%=      5-min Rain = 0
KWA1 222352Z 13011KT 20/09 A2979 RMK A01 T02020088  RH  048%=      5-min Rain = 0
KWA1 222353Z 13011KT 20/09 A2979 RMK A01 T02010088  RH  048%=      5-min Rain = 0
KWA1 222354Z 13011KT 20/09 A2979 RMK A01 T02010087  RH  048%=      5-min Rain = 0
KWA1 222355Z 12011KT 20/09 A2979 RMK A01 T02000086  RH  048%=      5-min Rain = 0
KWA1 222356Z 12011KT 20/08 A2979 RMK A01 T02000084  RH  047%=      5-min Rain = 0
KWA1 222357Z 12010KT 20/09 A2979 RMK A01 T02000085  RH  047%=      5-min Rain = 0
KWA1 222358Z 13011KT 20/08 A2979 RMK A01 T01990083  RH  047%=      5-min Rain = 0
KWA1 222359Z 12010KT 20/08 A2979 RMK A01 T02000084  RH  047%=      5-min Rain = 0
KWA1 230000Z 12011KT 20/08 A2979 RMK A01 T01990083  RH  047%=      5-min Rain = 0
KWA1 230001Z 12011KT 20/08 A2979 RMK A01 T01990083  RH  047%=      5-min Rain = 0
KWA1 230002Z 12011KT 20/08 A2979 RMK A01 T01990082  RH  047%=      5-min Rain = 0
KWA1 230003Z 13011KT 20/08 A2979 RMK A01 T01980082  RH  047%=      5-min Rain = 0
KWA1 230004Z 12011KT 20/08 A2979 RMK A01 T01980082  RH  047%=      5-min Rain = 0
KWA1 230005Z 12010KT 20/08 A298 RMK A01 T01980083  RH  047%=      5-min Rain = 0
KWA1 230006Z 12009KT 20/08 A298 RMK A01 T01980084  RH  048%=      5-min Rain = 0
KWA1 230007Z 12008KT 20/08 A298 RMK A01 T01970084  RH  048%=      5-min Rain = 0
KWA1 230008Z 11007KT 20/08 A298 RMK A01 T01960084  RH  048%=      5-min Rain = 0
KWA1 230009Z 12007KT 20/08 A298 RMK A01 T01960084  RH  048%=      5-min Rain = 0
KWA1 230010Z 12007KT 20/08 A298 RMK A01 T01950084  RH  048%=      5-min Rain = 0
KWA1 230011Z 11007KT 19/08 A298 RMK A01 T01940084  RH  049%=      5-min Rain = 0
KWA1 230012Z 11007KT 19/08 A298 RMK A01 T01930084  RH  049%=      5-min Rain = 0
KWA1 230013Z 11008KT 19/08 A298 RMK A01 T01940084  RH  049%=      5-min Rain = 0
KWA1 230014Z 11008KT 19/08 A298 RMK A01 T01930083  RH  049%=      5-min Rain = 0
KWA1 230015Z 11008KT 19/08 A298 RMK A01 T01930083  RH  049%=      5-min Rain = 0
KWA1 230016Z 11008KT 19/08 A298 RMK A01 T01930084  RH  049%=      5-min Rain = 0
KWA1 230017Z 11008KT 19/08 A298 RMK A01 T01930084  RH  049%=      5-min Rain = 0
KWA1 230018Z 09010KT 19/09 A298 RMK A01 T01920090  RH  051%=      5-min Rain = 0
KWA1 230019Z 08011KT 19/10 A298 RMK A01 T01870104  RH  058%=      5-min Rain = 0
KWA1 230020Z 08009KT 18/11 A298 RMK A01 T01820107  RH  061%=      5-min Rain = 0
KWA1 230021Z 08009KT 18/11 A298 RMK A01 T01790106  RH  063%=      5-min Rain = 0
KWA1 230022Z 08011KT 18/11 A298 RMK A01 T01770107  RH  063%=      5-min Rain = 0
KWA1 230023Z 08012KT 18/11 A298 RMK A01 T01750108  RH  065%=      5-min Rain = 0
KWA1 230024Z 07011KT 17/11 A298 RMK A01 T01740109  RH  066%=      5-min Rain = 0
KWA1 230025Z 07011KT 17/11 A298 RMK A01 T01730110  RH  066%=      5-min Rain = 0
KWA1 230026Z 07011KT 17/11 A298 RMK A01 T01710110  RH  067%=      5-min Rain = 0
KWA1 230027Z 08009KT 17/11 A298 RMK A01 T01700109  RH  067%=      5-min Rain = 0
KWA1 230028Z 08008KT 17/11 A298 RMK A01 T01680108  RH  068%=      5-min Rain = 0
KWA1 230029Z 08009KT 17/11 A298 RMK A01 T01680108  RH  068%=      5-min Rain = 0
KWA1 230030Z 08011KT 17/11 A298 RMK A01 T01670109  RH  069%=      5-min Rain = 0
KWA1 230031Z 08012KT 17/11 A298 RMK A01 T01660110  RH  069%=      5-min Rain = 0
KWA1 230032Z 08011KT 17/11 A298 RMK A01 T01650110  RH  070%=      5-min Rain = 0
KWA1 230033Z 08011KT 17/11 A298 RMK A01 T01650109  RH  070%=      5-min Rain = 0
KWA1 230034Z 08012KT 16/11 A298 RMK A01 T01640110  RH  070%=      5-min Rain = 0
KWA1 230035Z 08010KT 16/11 A2981 RMK A01 T01630109  RH  070%=      5-min Rain = 0
KWA1 230036Z 08010KT 16/11 A2981 RMK A01 T01630109  RH  071%=      5-min Rain = 0
KWA1 230037Z 08010KT 16/11 A2981 RMK A01 T01620110  RH  071%=      5-min Rain = 0
KWA1 230038Z 08010KT 16/11 A2981 RMK A01 T01610109  RH  071%=      5-min Rain = 0
KWA1 230039Z 08010KT 16/11 A2981 RMK A01 T01610109  RH  071%=      5-min Rain = 0
KWA1 230040Z 08009KT 16/11 A2981 RMK A01 T01600108  RH  071%=      5-min Rain = 0
KWA1 230041Z 08009KT 16/11 A2981 RMK A01 T01600109  RH  072%=      5-min Rain = 0
KWA1 230042Z 08009KT 16/11 A2981 RMK A01 T01590108  RH  072%=      5-min Rain = 0
KWA1 230043Z 08009KT 16/11 A2981 RMK A01 T01590108  RH  072%=      5-min Rain = 0
KWA1 230044Z 08009KT 16/11 A2981 RMK A01 T01580108  RH  072%=      5-min Rain = 0
KWA1 230045Z 08009KT 16/11 A2981 RMK A01 T01570107  RH  072%=      5-min Rain = 0
KWA1 230046Z 08009KT 16/11 A2981 RMK A01 T01570108  RH  072%=      5-min Rain = 0
KWA1 230047Z 08008KT 16/11 A2981 RMK A01 T01560107  RH  073%=      5-min Rain = 0
KWA1 230048Z 08009KT 16/11 A2981 RMK A01 T01560107  RH  073%=      5-min Rain = 0
KWA1 230049Z 07009KT 16/11 A2981 RMK A01 T01550106  RH  073%=      5-min Rain = 0
KWA1 230050Z 07009KT 15/11 A2981 RMK A01 T01540106  RH  073%=      5-min Rain = 0
KWA1 230051Z 08010KT 15/11 A2981 RMK A01 T01530106  RH  073%=      5-min Rain = 0
KWA1 230052Z 08009KT 15/11 A2981 RMK A01 T01530106  RH  074%=      5-min Rain = 0
KWA1 230053Z 08009KT 15/11 A2981 RMK A01 T01530108  RH  074%=      5-min Rain = 0
KWA1 230054Z 08009KT 15/11 A2981 RMK A01 T01520107  RH  074%=      5-min Rain = 0
KWA1 230055Z 08009KT 15/11 A2981 RMK A01 T01520106  RH  074%=      5-min Rain = 0
KWA1 230056Z 08009KT 15/11 A2981 RMK A01 T01510106  RH  074%=      5-min Rain = 0
KWA1 230057Z 08009KT 15/11 A2981 RMK A01 T01510106  RH  075%=      5-min Rain = 0
KWA1 230058Z 08008KT 15/11 A2981 RMK A01 T01500106  RH  075%=      5-min Rain = 0
KWA1 230059Z 08008KT 15/11 A2981 RMK A01 T01500106  RH  075%=      5-min Rain = 0
KWA1 230100Z 08008KT 15/11 A2981 RMK A01 T01490106  RH  075%=      5-min Rain = 0
KWA1 230101Z 08008KT 15/11 A2981 RMK A01 T01490105  RH  075%=      5-min Rain = 0
KWA1 230102Z 08010KT 15/10 A2981 RMK A01 T01480104  RH  075%=      5-min Rain = 0
KWA1 230103Z 08010KT 15/10 A2981 RMK A01 T01470104  RH  075%=      5-min Rain = 0
KWA1 230104Z 08010KT 15/11 A2981 RMK A01 T01470105  RH  076%=      5-min Rain = 0
KWA1 230105Z 08011KT 15/11 A2981 RMK A01 T01470106  RH  076%=      5-min Rain = 0
KWA1 230106Z 08011KT 15/11 A2981 RMK A01 T01470106  RH  076%=      5-min Rain = 0
KWA1 230107Z 08011KT 15/11 A2981 RMK A01 T01470107  RH  077%=      5-min Rain = 0
KWA1 230108Z 08010KT 15/11 A2981 RMK A01 T01470106  RH  076%=      5-min Rain = 0
KWA1 230109Z 08009KT 15/11 A2981 RMK A01 T01470106  RH  076%=      5-min Rain = 0
KWA1 230110Z 08010KT 15/11 A2981 RMK A01 T01460106  RH  077%=      5-min Rain = 0
KWA1 230111Z 08010KT 15/10 A298 RMK A01 T01450104  RH  076%=      5-min Rain = 0
KWA1 230112Z 08010KT 15/11 A298 RMK A01 T01450105  RH  077%=      5-min Rain = 0
KWA1 230113Z 08011KT 14/10 A298 RMK A01 T01440104  RH  077%=      5-min Rain = 0
KWA1 230114Z 08011KT 14/10 A298 RMK A01 T01440104  RH  077%=      5-min Rain = 0
KWA1 230115Z 08011KT 14/10 A298 RMK A01 T01430104  RH  077%=      5-min Rain = 0
KWA1 230116Z 08011KT 14/10 A298 RMK A01 T01430104  RH  078%=      5-min Rain = 0
KWA1 230117Z 08010KT 14/10 A298 RMK A01 T01430104  RH  078%=      5-min Rain = 0
KWA1 230118Z 08009KT 14/10 A298 RMK A01 T01430104  RH  078%=      5-min Rain = 0
KWA1 230119Z 08011KT 14/10 A298 RMK A01 T01420103  RH  078%=      5-min Rain = 0
KWA1 230120Z 09010KT 14/10 A2981 RMK A01 T01420104  RH  078%=      5-min Rain = 0
KWA1 230121Z 09010KT 14/11 A2981 RMK A01 T01420105  RH  078%=      5-min Rain = 0
KWA1 230122Z 09010KT 14/11 A2981 RMK A01 T01410105  RH  079%=      5-min Rain = 0
KWA1 230123Z 09011KT 14/11 A2981 RMK A01 T01410105  RH  079%=      5-min Rain = 0
KWA1 230124Z 08011KT 14/10 A2981 RMK A01 T01400104  RH  079%=      5-min Rain = 0
KWA1 230125Z 08013KT 14/11 A2981 RMK A01 T01400105  RH  079%=      5-min Rain = 0
KWA1 230126Z 09012KT 14/11 A2981 RMK A01 T01400105  RH  079%=      5-min Rain = 0
KWA1 230127Z 08013KT 14/11 A2981 RMK A01 T01390105  RH  080%=      5-min Rain = 0
KWA1 230128Z 08011KT 14/11 A2981 RMK A01 T01390105  RH  080%=      5-min Rain = 0
KWA1 230129Z 09012KT 14/10 A2981 RMK A01 T01380104  RH  080%=      5-min Rain = 0
KWA1 230130Z 09012KT 14/10 A2981 RMK A01 T01380104  RH  080%=      5-min Rain = 0
KWA1 230131Z 09012KT 14/11 A2981 RMK A01 T01370105  RH  081%=      5-min Rain = 0
KWA1 230132Z 08013KT 14/11 A2981 RMK A01 T01370105  RH  081%=      5-min Rain = 0
KWA1 230133Z 08013KT 14/11 A2981 RMK A01 T01370105  RH  081%=      5-min Rain = 0
KWA1 230134Z 08013KT 14/11 A2981 RMK A01 T01360105  RH  081%=      5-min Rain = 0
KWA1 230135Z 08013KT 14/11 A2981 RMK A01 T01360105  RH  081%=      5-min Rain = 0
KWA1 230136Z 08013KT 14/11 A2981 RMK A01 T01350105  RH  082%=      5-min Rain = 0
KWA1 230137Z 08011KT 14/11 A298 RMK A01 T01350105  RH  082%=      5-min Rain = 0
KWA1 230138Z 08012KT 14/10 A298 RMK A01 T01350104  RH  082%=      5-min Rain = 0
KWA1 230139Z 08012KT 13/10 A298 RMK A01 T01340103  RH  082%=      5-min Rain = 0
KWA1 230140Z 08011KT 13/10 A298 RMK A01 T01340104  RH  082%=      5-min Rain = 0
KWA1 230141Z 08011KT 13/10 A298 RMK A01 T01340104  RH  082%=      5-min Rain = 0
KWA1 230142Z 08012KT 13/10 A298 RMK A01 T01330103  RH  082%=      5-min Rain = 0
KWA1 230143Z 08011KT 13/10 A298 RMK A01 T01330103  RH  082%=      5-min Rain = 0
KWA1 230144Z 08011KT 13/10 A298 RMK A01 T01320102  RH  082%=      5-min Rain = 0
KWA1 230145Z 08011KT 13/10 A298 RMK A01 T01320102  RH  082%=      5-min Rain = 0
KWA1 230146Z 08010KT 13/10 A298 RMK A01 T01310102  RH  082%=      5-min Rain = 0
KWA1 230147Z 08011KT 13/10 A298 RMK A01 T01310101  RH  082%=      5-min Rain = 0
KWA1 230148Z 08012KT 13/10 A298 RMK A01 T01300102  RH  083%=      5-min Rain = 0
KWA1 230149Z 08012KT 13/10 A298 RMK A01 T01300102  RH  083%=      5-min Rain = 0
KWA1 230150Z 08012KT 13/10 A298 RMK A01 T01310103  RH  083%=      5-min Rain = 0
KWA1 230151Z 08011KT 13/10 A298 RMK A01 T01300102  RH  083%=      5-min Rain = 0
KWA1 230152Z 08011KT 13/10 A298 RMK A01 T01300102  RH  083%=      5-min Rain = 0
KWA1 230153Z 08011KT 13/10 A298 RMK A01 T01300103  RH  083%=      5-min Rain = 0
KWA1 230154Z 08012KT 13/10 A298 RMK A01 T01290102  RH  083%=      5-min Rain = 0
KWA1 230155Z 08013KT 13/10 A298 RMK A01 T01290103  RH  084%=      5-min Rain = 0
KWA1 230156Z 08011KT 13/10 A298 RMK A01 T01290103  RH  084%=      5-min Rain = 0
KWA1 230157Z 08013KT 13/10 A298 RMK A01 T01290104  RH  084%=      5-min Rain = 0
KWA1 230158Z 08012KT 13/10 A298 RMK A01 T01300104  RH  084%=      5-min Rain = 0
KWA1 230159Z 08012KT 13/10 A298 RMK A01 T01290104  RH  085%=      5-min Rain = 0
KWA1 230200Z 08014KT 13/10 A298 RMK A01 T01290104  RH  085%=      5-min Rain = 0
KWA1 230201Z 08012KT 13/10 A298 RMK A01 T01290104  RH  085%=      5-min Rain = 0
KWA1 230202Z 08012KT 13/10 A298 RMK A01 T01290104  RH  085%=      5-min Rain = 0
KWA1 230203Z 08013KT 13/10 A298 RMK A01 T01280103  RH  085%=      5-min Rain = 0
KWA1 230204Z 08012KT 13/10 A298 RMK A01 T01280103  RH  085%=      5-min Rain = 0
KWA1 230205Z 08012KT 13/10 A298 RMK A01 T01280103  RH  085%=      5-min Rain = 0
KWA1 230206Z 08012KT 13/10 A298 RMK A01 T01270103  RH  085%=      5-min Rain = 0
KWA1 230207Z 08012KT 13/10 A298 RMK A01 T01270102  RH  085%=      5-min Rain = 0
KWA1 230208Z 08013KT 13/10 A298 RMK A01 T01270103  RH  085%=      5-min Rain = 0
KWA1 230209Z 08011KT 13/10 A298 RMK A01 T01270103  RH  086%=      5-min Rain = 0
KWA1 230210Z 08011KT 13/10 A298 RMK A01 T01260103  RH  085%=      5-min Rain = 0
KWA1 230211Z 08012KT 13/10 A298 RMK A01 T01260102  RH  085%=      5-min Rain = 0
KWA1 230212Z 08011KT 13/10 A298 RMK A01 T01260103  RH  086%=      5-min Rain = 0
KWA1 230213Z 08012KT 13/10 A298 RMK A01 T01250102  RH  086%=      5-min Rain = 0
KWA1 230214Z 08012KT 13/10 A2981 RMK A01 T01250103  RH  086%=      5-min Rain = 0
KWA1 230215Z 08011KT 13/10 A2981 RMK A01 T01250102  RH  086%=      5-min Rain = 0
KWA1 230216Z 08012KT 13/10 A2981 RMK A01 T01250102  RH  086%=      5-min Rain = 0
KWA1 230217Z 07012KT 13/10 A2981 RMK A01 T01250102  RH  086%=      5-min Rain = 0
KWA1 230218Z 07012KT 12/10 A2981 RMK A01 T01240103  RH  087%=      5-min Rain = 0
KWA1 230219Z 07012KT 12/10 A2981 RMK A01 T01240102  RH  086%=      5-min Rain = 0
KWA1 230220Z 07012KT 12/10 A2981 RMK A01 T01240103  RH  087%=      5-min Rain = 0
KWA1 230221Z 07011KT 12/10 A2981 RMK A01 T01240103  RH  087%=      5-min Rain = 0
KWA1 230222Z 07012KT 12/10 A2981 RMK A01 T01230102  RH  087%=      5-min Rain = 0
KWA1 230223Z 07010KT 12/10 A2981 RMK A01 T01230103  RH  087%=      5-min Rain = 0
KWA1 230224Z 07010KT 12/10 A2981 RMK A01 T01230103  RH  087%=      5-min Rain = 0
KWA1 230225Z 07011KT 12/10 A2981 RMK A01 T01230103  RH  088%=      5-min Rain = 0
KWA1 230226Z 07009KT 12/10 A2981 RMK A01 T01230103  RH  088%=      5-min Rain = 0
KWA1 230227Z 07010KT 12/10 A2981 RMK A01 T01220102  RH  087%=      5-min Rain = 0
KWA1 230228Z 06010KT 12/10 A2981 RMK A01 T01210101  RH  087%=      5-min Rain = 0
KWA1 230229Z 07010KT 12/10 A2981 RMK A01 T01210101  RH  088%=      5-min Rain = 0
KWA1 230230Z 07009KT 12/10 A2981 RMK A01 T01200101  RH  088%=      5-min Rain = 0
KWA1 230231Z 07010KT 12/10 A2981 RMK A01 T01200101  RH  088%=      5-min Rain = 0
KWA1 230232Z 07010KT 12/10 A2981 RMK A01 T01190101  RH  088%=      5-min Rain = 0
KWA1 230233Z 07012KT 12/10 A298 RMK A01 T01190101  RH  089%=      5-min Rain = 0
KWA1 230234Z 07012KT 12/10 A298 RMK A01 T01190101  RH  089%=      5-min Rain = 0
KWA1 230235Z 08011KT 12/10 A298 RMK A01 T01180101  RH  089%=      5-min Rain = 0
KWA1 230236Z 08011KT 12/10 A298 RMK A01 T01180101  RH  089%=      5-min Rain = 0
KWA1 230237Z 08012KT 12/10 A298 RMK A01 T01180101  RH  089%=      5-min Rain = 0
KWA1 230238Z 08012KT 12/10 A298 RMK A01 T01180101  RH  090%=      5-min Rain = 0
KWA1 230239Z 08011KT 12/10 A298 RMK A01 T01170101  RH  090%=      5-min Rain = 0
KWA1 230240Z 08012KT 12/10 A298 RMK A01 T01180101  RH  089%=      5-min Rain = 0
KWA1 230241Z 08012KT 12/10 A298 RMK A01 T01170101  RH  090%=      5-min Rain = 0
KWA1 230242Z 08012KT 12/10 A298 RMK A01 T01180102  RH  090%=      5-min Rain = 0
KWA1 230243Z 08012KT 12/10 A298 RMK A01 T01180102  RH  090%=      5-min Rain = 0
KWA1 230244Z 08012KT 12/10 A2979 RMK A01 T01180102  RH  090%=      5-min Rain = 0
KWA1 230245Z 08012KT 12/10 A2979 RMK A01 T01170101  RH  090%=      5-min Rain = 0
KWA1 230246Z 08012KT 12/10 A2979 RMK A01 T01180102  RH  090%=      5-min Rain = 0
KWA1 230247Z 08011KT 12/10 A2979 RMK A01 T01170101  RH  090%=      5-min Rain = 0
KWA1 230248Z 08011KT 12/10 A2979 RMK A01 T01170101  RH  090%=      5-min Rain = 0
KWA1 230249Z 08011KT 12/10 A2979 RMK A01 T01160100  RH  090%=      5-min Rain = 0
KWA1 230250Z 08012KT 12/10 A2979 RMK A01 T01170101  RH  090%=      5-min Rain = 0
KWA1 230251Z 08011KT 12/10 A2979 RMK A01 T01170102  RH  090%=      5-min Rain = 0
KWA1 230252Z 08012KT 12/10 A2979 RMK A01 T01160101  RH  090%=      5-min Rain = 0
KWA1 230253Z 09012KT 12/10 A2979 RMK A01 T01160101  RH  090%=      5-min Rain = 0
KWA1 230254Z 09012KT 12/10 A2979 RMK A01 T01160101  RH  090%=      5-min Rain = 0
KWA1 230255Z 09012KT 12/10 A2979 RMK A01 T01160101  RH  091%=      5-min Rain = 0
KWA1 230256Z 08012KT 12/10 A2979 RMK A01 T01160101  RH  091%=      5-min Rain = 0
KWA1 230257Z 08010KT 12/10 A2979 RMK A01 T01150101  RH  091%=      5-min Rain = 0
KWA1 230258Z 09011KT 12/10 A2979 RMK A01 T01150101  RH  091%=      5-min Rain = 0
KWA1 230259Z 08010KT 12/10 A2979 RMK A01 T01150101  RH  091%=      5-min Rain = 0
KWA1 230300Z 08010KT 12/10 A2979 RMK A01 T01150101  RH  091%=      5-min Rain = 0
KWA1 230301Z 08010KT 12/10 A2979 RMK A01 T01150101  RH  091%=      5-min Rain = 0
KWA1 230302Z 08010KT 12/10 A2979 RMK A01 T01150101  RH  091%=      5-min Rain = 0
KWA1 230303Z 08011KT 11/10 A2979 RMK A01 T01140100  RH  091%=      5-min Rain = 0
KWA1 230304Z 08011KT 11/10 A2979 RMK A01 T01140101  RH  091%=      5-min Rain = 0
KWA1 230305Z 08010KT 11/10 A2979 RMK A01 T01140100  RH  091%=      5-min Rain = 0
KWA1 230306Z 08012KT 11/10 A2979 RMK A01 T01130100  RH  092%=      5-min Rain = 0
KWA1 230307Z 08011KT 11/10 A2979 RMK A01 T01130101  RH  092%=      5-min Rain = 0
KWA1 230308Z 09011KT 11/10 A2979 RMK A01 T01130100  RH  092%=      5-min Rain = 0
KWA1 230309Z 09011KT 11/10 A2979 RMK A01 T01130100  RH  092%=      5-min Rain = 0
KWA1 230310Z 09011KT 11/10 A2979 RMK A01 T01130101  RH  092%=      5-min Rain = 0
KWA1 230311Z 09011KT 11/10 A2978 RMK A01 T01130101  RH  092%=      5-min Rain = 0
KWA1 230312Z 09011KT 11/10 A2978 RMK A01 T01120100  RH  092%=      5-min Rain = 0
KWA1 230313Z 09011KT 11/10 A2978 RMK A01 T01120100  RH  092%=      5-min Rain = 0
KWA1 230314Z 09012KT 11/10 A2978 RMK A01 T01120100  RH  092%=      5-min Rain = 0
KWA1 230315Z 09012KT 11/10 A2978 RMK A01 T01120100  RH  092%=      5-min Rain = 0
KWA1 230316Z 09011KT 11/10 A2978 RMK A01 T01120100  RH  092%=      5-min Rain = 0
KWA1 230317Z 09012KT 11/10 A2978 RMK A01 T01120100  RH  092%=      5-min Rain = 0
KWA1 230318Z 09011KT 11/10 A2978 RMK A01 T01120100  RH  093%=      5-min Rain = 0
KWA1 230319Z 09011KT 11/10 A2978 RMK A01 T01110099  RH  092%=      5-min Rain = 0
KWA1 230320Z 09010KT 11/10 A2978 RMK A01 T01110099  RH  092%=      5-min Rain = 0
KWA1 230321Z 09011KT 11/10 A2978 RMK A01 T01110099  RH  092%=      5-min Rain = 0
KWA1 230322Z 09010KT 11/10 A2978 RMK A01 T01110099  RH  093%=      5-min Rain = 0
KWA1 230323Z 09010KT 11/10 A2978 RMK A01 T01110099  RH  093%=      5-min Rain = 0
KWA1 230324Z 09011KT 11/10 A2978 RMK A01 T01110099  RH  093%=      5-min Rain = 0
KWA1 230325Z 09011KT 11/10 A2978 RMK A01 T01110099  RH  093%=      5-min Rain = 0
KWA1 230326Z 09010KT 11/10 A2978 RMK A01 T01110099  RH  093%=      5-min Rain = 0
KWA1 230327Z 09010KT 11/10 A2978 RMK A01 T01110099  RH  093%=      5-min Rain = 0
KWA1 230328Z 09011KT 11/10 A2978 RMK A01 T01100099  RH  093%=      5-min Rain = 0
KWA1 230329Z 09010KT 11/10 A2978 RMK A01 T01110100  RH  093%=      5-min Rain = 0
KWA1 230330Z 09009KT 11/10 A2978 RMK A01 T01110100  RH  093%=      5-min Rain = 0
KWA1 230331Z 09010KT 11/10 A2978 RMK A01 T01110100  RH  093%=      5-min Rain = 0
KWA1 230332Z 08010KT 11/10 A2978 RMK A01 T01110100  RH  093%=      5-min Rain = 0
KWA1 230333Z 08009KT 11/10 A2978 RMK A01 T01110100  RH  093%=      5-min Rain = 0
KWA1 230334Z 08009KT 11/10 A2978 RMK A01 T01100099  RH  093%=      5-min Rain = 0
KWA1 230335Z 09009KT 11/10 A2978 RMK A01 T01100099  RH  093%=      5-min Rain = 0
KWA1 230336Z 08010KT 11/10 A2978 RMK A01 T01100099  RH  093%=      5-min Rain = 0
KWA1 230337Z 08009KT 11/10 A2978 RMK A01 T01100099  RH  093%=      5-min Rain = 0
KWA1 230338Z 08008KT 11/10 A2978 RMK A01 T01090098  RH  093%=      5-min Rain = 0
KWA1 230339Z 08008KT 11/10 A2978 RMK A01 T01090098  RH  093%=      5-min Rain = 0
KWA1 230340Z 08008KT 11/10 A2978 RMK A01 T01090098  RH  093%=      5-min Rain = 0
KWA1 230341Z 08008KT 11/10 A2978 RMK A01 T01090098  RH  093%=      5-min Rain = 0
KWA1 230342Z 08009KT 11/10 A2978 RMK A01 T01080097  RH  093%=      5-min Rain = 0
KWA1 230343Z 08008KT 11/10 A2978 RMK A01 T01080097  RH  093%=      5-min Rain = 0
KWA1 230344Z 08008KT 11/10 A2977 RMK A01 T01080098  RH  093%=      5-min Rain = 0
KWA1 230345Z 08008KT 11/10 A2977 RMK A01 T01080097  RH  093%=      5-min Rain = 0
KWA1 230346Z 08009KT 11/10 A2977 RMK A01 T01070097  RH  093%=      5-min Rain = 0
KWA1 230347Z 08008KT 11/10 A2977 RMK A01 T01070097  RH  093%=      5-min Rain = 0
KWA1 230348Z 08008KT 11/10 A2977 RMK A01 T01060096  RH  093%=      5-min Rain = 0
KWA1 230349Z 08009KT 11/10 A2977 RMK A01 T01060096  RH  094%=      5-min Rain = 0
KWA1 230350Z 08009KT 11/10 A2977 RMK A01 T01060097  RH  094%=      5-min Rain = 0
KWA1 230351Z 08008KT 11/10 A2977 RMK A01 T01060097  RH  094%=      5-min Rain = 0
KWA1 230352Z 08008KT 11/10 A2977 RMK A01 T01060097  RH  094%=      5-min Rain = 0
KWA1 230353Z 08008KT 11/10 A2978 RMK A01 T01060096  RH  094%=      5-min Rain = 0
KWA1 230354Z 08007KT 11/10 A2978 RMK A01 T01050096  RH  094%=      5-min Rain = 0
KWA1 230355Z 08007KT 11/10 A2978 RMK A01 T01050095  RH  094%=      5-min Rain = 0
KWA1 230356Z 08008KT 11/10 A2978 RMK A01 T01050095  RH  094%=      5-min Rain = 0
KWA1 230357Z 08009KT 10/09 A2977 RMK A01 T01040094  RH  094%=      5-min Rain = 0
KWA1 230358Z 08009KT 10/10 A2977 RMK A01 T01040095  RH  094%=      5-min Rain = 0
KWA1 230359Z 08009KT 10/10 A2977 RMK A01 T01040095  RH  094%=      5-min Rain = 0
KWA1 230400Z 08008KT 10/10 A2977 RMK A01 T01040095  RH  094%=      5-min Rain = 0
KWA1 230401Z 07009KT 10/09 A2977 RMK A01 T01040094  RH  094%=      5-min Rain = 0
KWA1 230402Z 08009KT 10/09 A2977 RMK A01 T01030094  RH  094%=      5-min Rain = 0
KWA1 230403Z 08009KT 10/10 A2977 RMK A01 T01030095  RH  094%=      5-min Rain = 0
KWA1 230404Z 08009KT 10/10 A2977 RMK A01 T01030095  RH  094%=      5-min Rain = 0
KWA1 230405Z 08009KT 10/10 A2977 RMK A01 T01030095  RH  094%=      5-min Rain = 0
KWA1 230406Z 08008KT 10/10 A2977 RMK A01 T01030095  RH  095%=      5-min Rain = 0
KWA1 230407Z 08008KT 10/09 A2977 RMK A01 T01030094  RH  094%=      5-min Rain = 0
KWA1 230408Z 08007KT 10/09 A2977 RMK A01 T01030094  RH  095%=      5-min Rain = 0
KWA1 230409Z 08007KT 10/09 A2977 RMK A01 T01020094  RH  095%=      5-min Rain = 0
KWA1 230410Z 08007KT 10/09 A2977 RMK A01 T01020094  RH  095%=      5-min Rain = 0
KWA1 230411Z 08007KT 10/09 A2978 RMK A01 T01020094  RH  095%=      5-min Rain = 0
KWA1 230412Z 08006KT 10/09 A2978 RMK A01 T01020094  RH  095%=      5-min Rain = 0
KWA1 230413Z 09006KT 10/09 A2978 RMK A01 T01020094  RH  095%=      5-min Rain = 0
KWA1 230414Z 09005KT 10/09 A2978 RMK A01 T01020093  RH  094%=      5-min Rain = 0
KWA1 230415Z 09005KT 10/09 A2978 RMK A01 T01010092  RH  094%=      5-min Rain = 0
KWA1 230416Z 09005KT 10/09 A2978 RMK A01 T01010092  RH  094%=      5-min Rain = 0
KWA1 230417Z 10005KT 10/09 A2978 RMK A01 T01000091  RH  094%=      5-min Rain = 0
KWA1 230418Z 11004KT 10/09 A2978 RMK A01 T01000092  RH  095%=      5-min Rain = 0
KWA1 230419Z 10004KT 10/09 A2978 RMK A01 T01010093  RH  095%=      5-min Rain = 0
KWA1 230420Z 10004KT 10/09 A2978 RMK A01 T01010094  RH  095%=      5-min Rain = 0
KWA1 230421Z 09005KT 10/10 A2978 RMK A01 T01010095  RH  096%=      5-min Rain = 0
KWA1 230422Z 09005KT 10/09 A2978 RMK A01 T01010094  RH  095%=      5-min Rain = 0
KWA1 230423Z 09005KT 10/09 A2978 RMK A01 T01010094  RH  095%=      5-min Rain = 0
KWA1 230424Z 09005KT 10/09 A2978 RMK A01 T01010094  RH  095%=      5-min Rain = 0
KWA1 230425Z 09006KT 10/09 A2978 RMK A01 T01000094  RH  095%=      5-min Rain = 0
KWA1 230426Z 09005KT 10/09 A2978 RMK A01 T01010094  RH  095%=      5-min Rain = 0
KWA1 230427Z 09005KT 10/09 A2977 RMK A01 T01010094  RH  096%=      5-min Rain = 0
KWA1 230428Z 09005KT 10/09 A2977 RMK A01 T01000093  RH  095%=      5-min Rain = 0
KWA1 230429Z 09006KT 10/09 A2977 RMK A01 T00990092  RH  095%=      5-min Rain = 0
KWA1 230430Z 09006KT 10/09 A2977 RMK A01 T00990092  RH  096%=      5-min Rain = 0
KWA1 230431Z 09006KT 10/09 A2977 RMK A01 T00990092  RH  096%=      5-min Rain = 0
KWA1 230432Z 09006KT 10/09 A2977 RMK A01 T00990092  RH  095%=      5-min Rain = 0
KWA1 230433Z 09007KT 10/09 A2977 RMK A01 T00980091  RH  095%=      5-min Rain = 0
KWA1 230434Z 09006KT 10/09 A2977 RMK A01 T00970090  RH  095%=      5-min Rain = 0
KWA1 230435Z 09006KT 10/09 A2977 RMK A01 T00970090  RH  095%=      5-min Rain = 0
KWA1 230436Z 09006KT 10/09 A2977 RMK A01 T00960090  RH  096%=      5-min Rain = 0
KWA1 230437Z 09006KT 10/09 A2977 RMK A01 T00960089  RH  095%=      5-min Rain = 0
KWA1 230438Z 10005KT 10/09 A2977 RMK A01 T00950088  RH  095%=      5-min Rain = 0
KWA1 230439Z 09005KT 10/09 A2977 RMK A01 T00950088  RH  096%=      5-min Rain = 0
KWA1 230440Z 09005KT 09/09 A2977 RMK A01 T00940088  RH  096%=      5-min Rain = 0
KWA1 230441Z 10005KT 09/09 A2977 RMK A01 T00940087  RH  096%=      5-min Rain = 0
KWA1 230442Z 10005KT 09/09 A2977 RMK A01 T00940087  RH  096%=      5-min Rain = 0
KWA1 230443Z 10005KT 09/09 A2977 RMK A01 T00940087  RH  096%=      5-min Rain = 0
KWA1 230444Z 11005KT 09/09 A2977 RMK A01 T00930087  RH  096%=      5-min Rain = 0
KWA1 230445Z 11006KT 09/09 A2978 RMK A01 T00930087  RH  096%=      5-min Rain = 0
KWA1 230446Z 11006KT 09/09 A2978 RMK A01 T00930088  RH  096%=      5-min Rain = 0
KWA1 230447Z 11007KT 09/09 A2978 RMK A01 T00940088  RH  096%=      5-min Rain = 0
KWA1 230448Z 12006KT 09/09 A2978 RMK A01 T00930088  RH  096%=      5-min Rain = 0
KWA1 230449Z 12007KT 09/09 A2978 RMK A01 T00930087  RH  096%=      5-min Rain = 0
KWA1 230450Z 12007KT 09/09 A2978 RMK A01 T00920086  RH  096%=      5-min Rain = 0
KWA1 230451Z 12007KT 09/09 A2977 RMK A01 T00910085  RH  096%=      5-min Rain = 0
KWA1 230452Z 12008KT 09/08 A2977 RMK A01 T00900084  RH  096%=      5-min Rain = 0
KWA1 230453Z 12008KT 09/08 A2977 RMK A01 T00900084  RH  096%=      5-min Rain = 0
KWA1 230454Z 12008KT 09/09 A2977 RMK A01 T00900085  RH  096%=      5-min Rain = 0
KWA1 230455Z 12007KT 09/09 A2977 RMK A01 T00900085  RH  097%=      5-min Rain = 0
KWA1 230456Z 12008KT 09/08 A2977 RMK A01 T00890084  RH  096%=      5-min Rain = 0
KWA1 230457Z 12008KT 09/08 A2977 RMK A01 T00880083  RH  096%=      5-min Rain = 0
KWA1 230458Z 12008KT 09/08 A2977 RMK A01 T00870082  RH  097%=      5-min Rain = 0
KWA1 230459Z 13008KT 09/08 A2977 RMK A01 T00870082  RH  097%=      5-min Rain = 0
KWA1 230500Z 13007KT 09/08 A2977 RMK A01 T00870082  RH  097%=      5-min Rain = 0
KWA1 230501Z 14008KT 09/08 A2977 RMK A01 T00860082  RH  097%=      5-min Rain = 0
KWA1 230502Z 14007KT 09/08 A2976 RMK A01 T00870083  RH  097%=      5-min Rain = 0
KWA1 230503Z 14009KT 09/08 A2976 RMK A01 T00870083  RH  097%=      5-min Rain = 0
KWA1 230504Z 14008KT 09/09 A2976 RMK A01 T00890086  RH  098%=      5-min Rain = 0
KWA1 230505Z 15008KT 09/09 A2976 RMK A01 T00920090  RH  098%=      5-min Rain = 0
KWA1 230506Z 15009KT 09/09 A2976 RMK A01 T00930090  RH  098%=      5-min Rain = 0
KWA1 230507Z 15009KT 09/09 A2976 RMK A01 T00920088  RH  097%=      5-min Rain = 0
KWA1 230508Z 15010KT 09/09 A2976 RMK A01 T00920088  RH  097%=      5-min Rain = 0
KWA1 230509Z 15010KT 09/09 A2976 RMK A01 T00930089  RH  097%=      5-min Rain = 0
KWA1 230510Z 15010KT 09/09 A2976 RMK A01 T00940091  RH  098%=      5-min Rain = 0
KWA1 230511Z 14010KT 09/09 A2976 RMK A01 T00940090  RH  097%=      5-min Rain = 0
KWA1 230512Z 14011KT 10/09 A2976 RMK A01 T00950091  RH  097%=      5-min Rain = 0
KWA1 230513Z 14011KT 10/10 A2976 RMK A01 T00980095  RH  098%=      5-min Rain = 0
KWA1 230514Z 14011KT 10/10 A2976 RMK A01 T01020100  RH  098%=      5-min Rain = 0
KWA1 230515Z 14011KT 11/10 A2976 RMK A01 T01050101  RH  098%=      5-min Rain = 0
KWA1 230516Z 14011KT 11/10 A2976 RMK A01 T01060102  RH  097%=      5-min Rain = 0
KWA1 230517Z 14011KT 11/10 A2976 RMK A01 T01070102  RH  097%=      5-min Rain = 0
KWA1 230518Z 14011KT 11/10 A2976 RMK A01 T01070102  RH  096%=      5-min Rain = 0
KWA1 230519Z 14011KT 11/10 A2976 RMK A01 T01080102  RH  096%=      5-min Rain = 0
KWA1 230520Z 14011KT 11/10 A2976 RMK A01 T01090102  RH  095%=      5-min Rain = 0
KWA1 230521Z 14010KT 11/10 A2976 RMK A01 T01100102  RH  095%=      5-min Rain = 0
KWA1 230522Z 14010KT 11/10 A2976 RMK A01 T01110104  RH  095%=      5-min Rain = 0
KWA1 230523Z 14010KT 11/11 A2976 RMK A01 T01130105  RH  095%=      5-min Rain = 0
KWA1 230524Z 14010KT 11/11 A2976 RMK A01 T01130105  RH  094%=      5-min Rain = 0
KWA1 230525Z 14010KT 11/11 A2976 RMK A01 T01140105  RH  094%=      5-min Rain = 0
KWA1 230526Z 14010KT 11/11 A2976 RMK A01 T01140105  RH  094%=      5-min Rain = 0
KWA1 230527Z 14011KT 12/11 A2976 RMK A01 T01150105  RH  094%=      5-min Rain = 0
KWA1 230528Z 14010KT 12/11 A2976 RMK A01 T01150105  RH  094%=      5-min Rain = 0
KWA1 230529Z 14010KT 12/10 A2976 RMK A01 T01150104  RH  093%=      5-min Rain = 0
KWA1 230530Z 14010KT 11/10 A2976 RMK A01 T01140103  RH  093%=      5-min Rain = 0
KWA1 230531Z 14010KT 11/10 A2976 RMK A01 T01140103  RH  093%=      5-min Rain = 0
KWA1 230532Z 15010KT 11/10 A2976 RMK A01 T01130102  RH  093%=      5-min Rain = 0
KWA1 230533Z 15010KT 11/10 A2976 RMK A01 T01110099  RH  092%=      5-min Rain = 0
KWA1 230534Z 15011KT 11/10 A2976 RMK A01 T01100099  RH  093%=      5-min Rain = 0
KWA1 230535Z 15010KT 11/10 A2976 RMK A01 T01100100  RH  093%=      5-min Rain = 0
KWA1 230536Z 15011KT 11/10 A2976 RMK A01 T01100100  RH  093%=      5-min Rain = 0
KWA1 230537Z 15011KT 11/10 A2976 RMK A01 T01110101  RH  094%=      5-min Rain = 0
KWA1 230538Z 15012KT 11/10 A2977 RMK A01 T01110102  RH  094%=      5-min Rain = 0
KWA1 230539Z 15012KT 11/10 A2977 RMK A01 T01120102  RH  094%=      5-min Rain = 0
KWA1 230540Z 15012KT 11/10 A2977 RMK A01 T01110101  RH  093%=      5-min Rain = 0
KWA1 230541Z 15012KT 11/10 A2977 RMK A01 T01100100  RH  094%=      5-min Rain = 0
KWA1 230542Z 15015KT 11/10 A2977 RMK A01 T01110102  RH  094%=      5-min Rain = 0
KWA1 230543Z 15015KT 12/11 A2977 RMK A01 T01150108  RH  095%=      5-min Rain = 0
KWA1 230544Z 15014KT 12/11 A2977 RMK A01 T01170109  RH  095%=      5-min Rain = 0
KWA1 230545Z 15013KT 12/11 A2977 RMK A01 T01180109  RH  094%=      5-min Rain = 0
KWA1 230546Z 15015KT 12/11 A2977 RMK A01 T01190110  RH  094%=      5-min Rain = 0
KWA1 230547Z 15015KT 12/11 A2977 RMK A01 T01220112  RH  094%=      5-min Rain = 0
KWA1 230548Z 15015KT 12/11 A2977 RMK A01 T01240113  RH  093%=      5-min Rain = 0
KWA1 230549Z 15015KT 13/11 A2977 RMK A01 T01250113  RH  093%=      5-min Rain = 0
KWA1 230550Z 16016KT 13/11 A2977 RMK A01 T01260114  RH  092%=      5-min Rain = 0
KWA1 230551Z 16017KT 13/11 A2977 RMK A01 T01270114  RH  092%=      5-min Rain = 0
KWA1 230552Z 16015KT 13/12 A2977 RMK A01 T01290115  RH  092%=      5-min Rain = 0
KWA1 230553Z 15015KT 13/12 A2977 RMK A01 T01290115  RH  091%=      5-min Rain = 0
KWA1 230554Z 16014KT 13/12 A2977 RMK A01 T01300115  RH  091%=      5-min Rain = 0
KWA1 230555Z 16015KT 13/12 A2978 RMK A01 T01300115  RH  090%=      5-min Rain = 0
KWA1 230556Z 17013KT 13/12 A2977 RMK A01 T01310115  RH  090%=      5-min Rain = 0
KWA1 230557Z 16014KT 13/11 A2978 RMK A01 T01310114  RH  090%=      5-min Rain = 0
KWA1 230558Z 16014KT 13/12 A2977 RMK A01 T01310115  RH  090%=      5-min Rain = 0
KWA1 230559Z 17014KT 13/12 A2977 RMK A01 T01320115  RH  089%=      5-min Rain = 0

Page generated in 0.1874 seconds.